KAL018 KLAX-RKSI

Flight info

Callsign KAL018
Flight time 12h 26m
Altitude 32000
Route N0498F320 SUMMR2 MCKEY DCT LIBBO DCT BRINY DCT BOARS DCT AMAKR DCT LINUZ DCT NATTE/M085F320 DCT 44N130W/M085F340 49N140W 52N150W 54N160W 55N170W/M085F360 55N180E/N0496F360 DCT ONEIL/M085F360 G469 NYMPH R220 NUBDA/M085F380 R220 NODAN/N0493F380 R217 ASTER Y514 SDE Y512 GTC Y142 SAMON Y14 SUGNO Y16 SAPRA/N0494F360 Y685 GUKDO DCT
Aircraft B748/H-SDE2FGHIJ1J2J3J4J5M1P2RWXYZ/LB1D1G1

Departure

Time 2026-04-23 19:49
Airport Los Angeles International Airport (KLAX)

Arrival

Time 2026-04-24 08:15
Airport Incheon International Airport (RKSI)
Time Latitude Longitude Altitude Speed Heading
2026-04-23 18:10 33.94178 -118.41091 140 ft 0 kts 83°
2026-04-23 19:34 33.94176 -118.41147 139 ft 4 kts 81°
2026-04-23 19:35 33.94171 -118.41168 139 ft 3 kts 50°
2026-04-23 19:35 33.94154 -118.41188 139 ft 4 kts 26°
2026-04-23 19:35 33.94132 -118.41196 139 ft 4 kts 359°
2026-04-23 19:35 33.94105 -118.41194 139 ft 4 kts 352°
2026-04-23 19:36 33.94096 -118.41192 139 ft 0 kts 352°
2026-04-23 19:40 33.94099 -118.41193 139 ft 2 kts 352°
2026-04-23 19:40 33.94131 -118.41198 139 ft 6 kts 353°
2026-04-23 19:41 33.94190 -118.41206 139 ft 8 kts 353°
2026-04-23 19:41 33.94242 -118.41216 139 ft 7 kts 333°
2026-04-23 19:41 33.94261 -118.41268 139 ft 7 kts 263°
2026-04-23 19:41 33.94280 -118.41316 139 ft 7 kts 332°
2026-04-23 19:42 33.94328 -118.41328 139 ft 9 kts 352°
2026-04-23 19:42 33.94415 -118.41342 139 ft 16 kts 352°
2026-04-23 19:42 33.94524 -118.41359 139 ft 15 kts 353°
2026-04-23 19:42 33.94628 -118.41373 139 ft 14 kts 353°
2026-04-23 19:43 33.94712 -118.41386 139 ft 9 kts 353°
2026-04-23 19:43 33.94768 -118.41379 139 ft 8 kts 41°
2026-04-23 19:43 33.94791 -118.41319 139 ft 8 kts 81°
2026-04-23 19:43 33.94799 -118.41240 139 ft 13 kts 83°
2026-04-23 19:44 33.94813 -118.41100 139 ft 21 kts 83°
2026-04-23 19:44 33.94833 -118.40909 139 ft 23 kts 83°
2026-04-23 19:44 33.94852 -118.40722 139 ft 22 kts 83°
2026-04-23 19:44 33.94871 -118.40543 139 ft 21 kts 83°
2026-04-23 19:45 33.94888 -118.40371 139 ft 20 kts 83°
2026-04-23 19:45 33.94905 -118.40207 139 ft 17 kts 83°
2026-04-23 19:45 33.94918 -118.40083 139 ft 12 kts 83°
2026-04-23 19:45 33.94926 -118.40000 139 ft 8 kts 83°
2026-04-23 19:46 33.94941 -118.39939 139 ft 7 kts 53°
2026-04-23 19:46 33.94985 -118.39913 139 ft 7 kts
2026-04-23 19:46 33.95025 -118.39916 139 ft 4 kts 352°
2026-04-23 19:46 33.95039 -118.39939 139 ft 4 kts 279°
2026-04-23 19:47 33.95040 -118.39960 139 ft 4 kts 266°
2026-04-23 19:47 33.95039 -118.39972 139 ft 0 kts 263°
2026-04-23 19:47 33.95039 -118.39973 139 ft 2 kts 263°
2026-04-23 19:48 33.95024 -118.40116 139 ft 42 kts 263°
2026-04-23 19:48 33.94965 -118.40703 139 ft 99 kts 263°
2026-04-23 19:48 33.94858 -118.41751 139 ft 153 kts 262°
2026-04-23 19:48 33.94706 -118.43203 211 ft 188 kts 263°
2026-04-23 19:49 33.94556 -118.44741 872 ft 183 kts 263°
2026-04-23 19:49 33.94427 -118.46285 1510 ft 187 kts 264°
2026-04-23 19:49 33.94324 -118.47869 2096 ft 196 kts 265°
2026-04-23 19:49 33.94237 -118.49551 2661 ft 205 kts 266°
2026-04-23 19:50 33.94184 -118.51329 2998 ft 220 kts 266°
2026-04-23 19:50 33.94074 -118.53213 3309 ft 232 kts 264°
2026-04-23 19:50 33.93912 -118.55182 3576 ft 239 kts 264°
2026-04-23 19:50 33.93742 -118.57202 3889 ft 246 kts 264°
2026-04-23 19:51 33.93573 -118.59281 4236 ft 252 kts 264°
2026-04-23 19:51 33.93403 -118.61414 4587 ft 259 kts 265°
2026-04-23 19:51 33.93230 -118.63586 4961 ft 264 kts 265°
2026-04-23 19:51 33.93057 -118.65831 5257 ft 274 kts 265°
2026-04-23 19:52 33.92941 -118.67368 5426 ft 283 kts 265°
2026-04-23 19:52 33.92692 -118.70609 5923 ft 296 kts 265°
2026-04-23 19:52 33.92497 -118.73109 6422 ft 303 kts 265°
2026-04-23 19:52 33.92303 -118.75663 6989 ft 308 kts 268°
2026-04-23 19:53 33.92384 -118.78258 7621 ft 311 kts 274°
2026-04-23 19:53 33.92481 -118.80879 8241 ft 316 kts 272°
2026-04-23 19:53 33.92530 -118.83532 8889 ft 319 kts 274°
2026-04-23 19:53 33.92777 -118.86170 9439 ft 325 kts 279°
2026-04-23 19:54 33.93181 -118.88922 9711 ft 342 kts 281°
2026-04-23 19:54 33.93647 -118.91834 9978 ft 359 kts 282°
2026-04-23 19:54 33.94131 -118.94822 10234 ft 375 kts 282°
2026-04-23 19:54 33.94645 -118.97968 10529 ft 390 kts 282°
2026-04-23 19:55 33.95174 -119.01206 11132 ft 396 kts 282°
2026-04-23 19:55 33.95707 -119.04454 11938 ft 394 kts 282°
2026-04-23 19:55 33.96233 -119.07645 12816 ft 393 kts 282°
2026-04-23 19:55 33.96783 -119.10938 13373 ft 399 kts 282°
2026-04-23 19:56 33.97339 -119.14226 14080 ft 401 kts 282°
2026-04-23 19:56 33.97904 -119.17529 14709 ft 404 kts 282°
2026-04-23 19:56 33.98481 -119.20849 15364 ft 406 kts 282°
2026-04-23 19:56 33.99069 -119.24191 15997 ft 409 kts 282°
2026-04-23 19:57 33.99670 -119.27552 16586 ft 412 kts 282°
2026-04-23 19:57 34.00279 -119.30922 17198 ft 413 kts 282°
2026-04-23 19:57 34.00690 -119.33173 17651 ft 414 kts 282°
2026-04-23 19:57 34.01675 -119.37679 18347 ft 420 kts 291°
2026-04-23 19:58 34.03207 -119.40713 18859 ft 428 kts 306°
2026-04-23 19:58 34.05197 -119.43417 19357 ft 434 kts 311°
2026-04-23 19:58 34.07377 -119.45969 19891 ft 438 kts 313°
2026-04-23 19:58 34.09616 -119.48498 20396 ft 442 kts 314°
2026-04-23 19:59 34.11871 -119.51027 20877 ft 446 kts 314°
2026-04-23 19:59 34.14154 -119.53592 21357 ft 449 kts 314°
2026-04-23 19:59 34.16448 -119.56175 21806 ft 453 kts 314°
2026-04-23 19:59 34.18757 -119.58777 22280 ft 455 kts 314°
2026-04-23 20:00 34.20295 -119.60511 22587 ft 457 kts 314°
2026-04-23 20:00 34.23421 -119.64042 23145 ft 462 kts 314°
2026-04-23 20:00 34.24981 -119.65805 23448 ft 464 kts 314°
2026-04-23 20:00 34.27342 -119.68475 23883 ft 467 kts 314°
2026-04-23 20:01 34.29724 -119.71172 24305 ft 470 kts 314°
2026-04-23 20:01 34.32122 -119.73889 24706 ft 474 kts 314°
2026-04-23 20:01 34.34529 -119.76618 25143 ft 475 kts 314°
2026-04-23 20:01 34.36945 -119.79360 25500 ft 478 kts 313°
2026-04-23 20:02 34.39382 -119.82128 25894 ft 480 kts 313°
2026-04-23 20:02 34.41817 -119.84897 26353 ft 480 kts 313°
2026-04-23 20:02 34.44241 -119.87654 26890 ft 478 kts 313°
2026-04-23 20:02 34.46658 -119.90407 27401 ft 475 kts 313°
2026-04-23 20:03 34.49065 -119.93150 27830 ft 475 kts 313°
2026-04-23 20:03 34.54605 -119.99472 28765 ft 472 kts 313°
2026-04-23 20:03 34.56999 -120.02208 29105 ft 472 kts 313°
2026-04-23 20:04 34.58580 -120.04017 29373 ft 471 kts 313°
2026-04-23 20:04 34.60956 -120.06736 29737 ft 470 kts 313°
2026-04-23 20:04 34.63327 -120.09452 30046 ft 469 kts 313°
2026-04-23 20:04 34.65706 -120.12178 30371 ft 468 kts 313°
2026-04-23 20:05 34.68071 -120.14891 30712 ft 466 kts 313°
2026-04-23 20:05 34.70424 -120.17593 31010 ft 466 kts 313°
2026-04-23 20:05 34.72776 -120.20296 31312 ft 464 kts 313°
2026-04-23 20:05 34.75120 -120.22992 31603 ft 463 kts 312°
2026-04-23 20:06 34.77463 -120.25688 31881 ft 462 kts 312°
2026-04-23 20:06 34.79796 -120.28377 32043 ft 463 kts 312°
2026-04-23 20:06 34.82133 -120.31070 32078 ft 462 kts 312°
2026-04-23 20:07 34.86783 -120.36439 32086 ft 460 kts 312°
2026-04-23 20:07 34.91425 -120.41806 32090 ft 460 kts 312°
2026-04-23 20:08 34.96032 -120.47142 32091 ft 460 kts 312°
2026-04-23 20:08 35.00665 -120.52517 32093 ft 459 kts 312°
2026-04-23 20:09 35.05278 -120.57877 32095 ft 458 kts 312°
2026-04-23 20:09 35.09892 -120.63247 32091 ft 458 kts 311°
2026-04-23 20:10 35.14503 -120.68621 32091 ft 458 kts 311°
2026-04-23 20:10 35.19109 -120.74000 32090 ft 458 kts 311°
2026-04-23 20:11 35.23708 -120.79379 32090 ft 457 kts 311°
2026-04-23 20:11 35.28314 -120.84742 32099 ft 457 kts 311°
2026-04-23 20:12 35.32904 -120.90126 32106 ft 457 kts 311°
2026-04-23 20:12 35.37477 -120.95516 32113 ft 456 kts 311°
2026-04-23 20:13 35.42042 -121.00904 32120 ft 456 kts 311°
2026-04-23 20:13 35.46619 -121.06309 32126 ft 456 kts 311°
2026-04-23 20:14 35.50963 -121.11946 32129 ft 454 kts 306°
2026-04-23 20:14 35.55014 -121.17868 32131 ft 452 kts 306°
2026-04-23 20:15 35.59065 -121.23783 32133 ft 453 kts 306°
2026-04-23 20:15 35.63140 -121.29698 32133 ft 452 kts 306°
2026-04-23 20:16 35.67181 -121.35560 32134 ft 451 kts 306°
2026-04-23 20:16 35.71244 -121.41446 32152 ft 452 kts 306°
2026-04-23 20:17 35.75335 -121.47326 32161 ft 452 kts 306°
2026-04-23 20:17 35.79404 -121.53219 32162 ft 452 kts 306°
2026-04-23 20:18 35.83487 -121.59112 32162 ft 452 kts 306°
2026-04-23 20:18 35.87538 -121.65025 32157 ft 451 kts 306°
2026-04-23 20:19 35.91585 -121.70952 32157 ft 451 kts 306°
2026-04-23 20:19 35.95625 -121.76878 32158 ft 451 kts 306°
2026-04-23 20:20 35.99917 -121.82518 32170 ft 455 kts 318°
2026-04-23 20:20 36.05335 -121.86714 32168 ft 464 kts 326°
2026-04-23 20:21 36.11113 -121.90352 32167 ft 467 kts 328°
2026-04-23 20:21 36.16932 -121.93934 32167 ft 467 kts 328°
2026-04-23 20:22 36.22731 -121.97554 32167 ft 467 kts 327°
2026-04-23 20:22 36.28527 -122.01194 32167 ft 466 kts 327°
2026-04-23 20:23 36.34318 -122.04817 32168 ft 466 kts 327°
2026-04-23 20:23 36.40108 -122.08448 32170 ft 466 kts 327°
2026-04-23 20:24 36.45927 -122.12114 32170 ft 472 kts 327°
2026-04-23 20:24 36.51740 -122.15786 32171 ft 471 kts 327°
2026-04-23 20:25 36.57589 -122.19489 32172 ft 470 kts 327°
2026-04-23 20:25 36.63424 -122.23189 32170 ft 470 kts 327°
2026-04-23 20:26 36.69244 -122.26888 32168 ft 469 kts 327°
2026-04-23 20:26 36.75052 -122.30585 32167 ft 468 kts 327°
2026-04-23 20:27 36.80851 -122.34282 32167 ft 468 kts 327°
2026-04-23 20:27 36.86641 -122.37979 32168 ft 466 kts 327°
2026-04-23 20:28 36.92408 -122.41669 32167 ft 466 kts 327°
2026-04-23 20:28 36.98180 -122.45368 32168 ft 465 kts 327°
2026-04-23 20:29 37.03907 -122.49030 32181 ft 465 kts 327°
2026-04-23 20:29 37.09656 -122.52718 32171 ft 464 kts 327°
2026-04-23 20:30 37.15388 -122.56417 32172 ft 463 kts 327°
2026-04-23 20:30 37.23979 -122.61975 32175 ft 463 kts 327°
2026-04-23 20:31 37.29698 -122.65671 32176 ft 462 kts 328°
2026-04-23 20:31 37.35623 -122.68880 32177 ft 466 kts 332°
2026-04-23 20:32 37.41677 -122.71826 32175 ft 467 kts 332°
2026-04-23 20:32 37.47723 -122.74819 32176 ft 467 kts 332°
2026-04-23 20:33 37.53760 -122.77838 32174 ft 466 kts 332°
2026-04-23 20:33 37.59776 -122.80858 32172 ft 466 kts 332°
2026-04-23 20:34 37.65805 -122.83874 32171 ft 466 kts 332°
2026-04-23 20:34 37.71828 -122.86891 32167 ft 466 kts 332°
2026-04-23 20:35 37.77849 -122.89922 32163 ft 465 kts 332°
2026-04-23 20:35 37.83856 -122.92955 32159 ft 465 kts 332°
2026-04-23 20:36 37.89860 -122.95991 32155 ft 465 kts 332°
2026-04-23 20:36 37.95875 -122.99025 32153 ft 465 kts 332°
2026-04-23 20:37 38.01877 -123.02068 32158 ft 464 kts 332°
2026-04-23 20:37 38.07840 -123.05107 32155 ft 461 kts 332°
2026-04-23 20:38 38.13804 -123.08152 32149 ft 462 kts 332°
2026-04-23 20:38 38.19768 -123.11199 32141 ft 462 kts 332°
2026-04-23 20:39 38.25502 -123.14803 32141 ft 457 kts 324°
2026-04-23 20:39 38.30835 -123.19057 32143 ft 454 kts 322°
2026-04-23 20:40 38.36151 -123.23399 32145 ft 455 kts 322°
2026-04-23 20:40 38.41528 -123.27741 32145 ft 460 kts 322°
2026-04-23 20:41 38.46935 -123.32094 32144 ft 459 kts 322°
2026-04-23 20:41 38.52342 -123.36443 32143 ft 460 kts 323°
2026-04-23 20:42 38.57765 -123.40772 32143 ft 460 kts 323°
2026-04-23 20:42 38.63179 -123.45124 32143 ft 460 kts 323°
2026-04-23 20:43 38.68592 -123.49490 32144 ft 460 kts 323°
2026-04-23 20:43 38.74011 -123.53858 32143 ft 460 kts 323°
2026-04-23 20:44 38.79423 -123.58225 32144 ft 460 kts 323°
2026-04-23 20:44 38.84847 -123.62634 32144 ft 461 kts 323°
2026-04-23 20:45 38.90267 -123.67052 32144 ft 461 kts 323°
2026-04-23 20:45 38.95694 -123.71482 32144 ft 465 kts 323°
2026-04-23 20:46 39.01138 -123.76050 32146 ft 467 kts 320°
2026-04-23 20:46 39.06305 -123.81083 32146 ft 465 kts 317°
2026-04-23 20:47 39.10542 -123.85344 32145 ft 465 kts 318°
2026-04-23 20:47 39.15653 -123.90454 32151 ft 465 kts 318°
2026-04-23 20:48 39.20782 -123.95570 32154 ft 466 kts 318°
2026-04-23 20:48 39.25873 -124.00650 32157 ft 466 kts 318°
2026-04-23 20:49 39.31035 -124.05753 32160 ft 469 kts 319°
2026-04-23 20:49 39.36218 -124.10887 32164 ft 469 kts 319°
2026-04-23 20:50 39.41383 -124.16031 32176 ft 469 kts 319°
2026-04-23 20:50 39.46546 -124.21189 32181 ft 469 kts 319°
2026-04-23 20:51 39.51710 -124.26360 32182 ft 468 kts 318°
2026-04-23 20:51 39.56841 -124.31510 32187 ft 465 kts 318°
2026-04-23 20:52 39.61934 -124.36633 32192 ft 466 kts 318°
2026-04-23 20:52 39.67075 -124.41814 32196 ft 466 kts 318°
2026-04-23 20:53 39.72197 -124.46985 32197 ft 466 kts 318°
2026-04-23 20:53 39.77312 -124.52160 32200 ft 467 kts 318°
2026-04-23 20:54 39.82432 -124.57349 32205 ft 466 kts 318°
2026-04-23 20:54 39.87516 -124.62512 32207 ft 467 kts 318°
2026-04-23 20:55 39.92671 -124.67757 32209 ft 467 kts 318°
2026-04-23 20:55 39.97786 -124.72972 32211 ft 467 kts 318°
2026-04-23 20:56 40.02907 -124.78204 32214 ft 468 kts 318°
2026-04-23 20:56 40.08034 -124.83452 32215 ft 469 kts 319°
2026-04-23 20:57 40.13157 -124.88706 32215 ft 466 kts 318°
2026-04-23 20:57 40.18231 -124.93919 32216 ft 462 kts 318°
2026-04-23 20:58 40.23250 -124.99087 32218 ft 463 kts 318°
2026-04-23 20:58 40.28346 -125.04343 32219 ft 463 kts 318°
2026-04-23 20:59 40.33325 -125.09604 32218 ft 463 kts 317°
2026-04-23 20:59 40.38345 -125.14978 32218 ft 463 kts 317°
2026-04-23 21:00 40.43334 -125.20329 32218 ft 464 kts 317°
2026-04-23 21:00 40.48359 -125.25601 32217 ft 464 kts 318°
2026-04-23 21:01 40.53429 -125.30850 32218 ft 464 kts 318°
2026-04-23 21:01 40.58497 -125.36113 32224 ft 464 kts 318°
2026-04-23 21:02 40.63561 -125.41387 32226 ft 464 kts 318°
2026-04-23 21:02 40.68625 -125.46671 32226 ft 464 kts 318°
2026-04-23 21:03 40.73668 -125.51944 32226 ft 464 kts 318°
2026-04-23 21:03 40.78742 -125.57261 32226 ft 465 kts 318°
2026-04-23 21:04 40.83805 -125.62576 32225 ft 465 kts 318°
2026-04-23 21:04 40.88863 -125.67898 32226 ft 465 kts 318°
2026-04-23 21:05 40.93919 -125.73228 32221 ft 464 kts 318°
2026-04-23 21:05 40.98969 -125.78562 32221 ft 465 kts 318°
2026-04-23 21:06 41.04022 -125.83910 32238 ft 465 kts 318°
2026-04-23 21:06 41.09069 -125.89263 32239 ft 465 kts 318°
2026-04-23 21:07 41.14117 -125.94628 32240 ft 465 kts 318°
2026-04-23 21:07 41.19164 -126.00002 32241 ft 465 kts 318°
2026-04-23 21:08 41.24216 -126.05393 32241 ft 466 kts 318°
2026-04-23 21:08 41.29267 -126.10794 32242 ft 467 kts 318°
2026-04-23 21:09 41.34358 -126.16248 32242 ft 466 kts 318°
2026-04-23 21:09 41.39381 -126.21641 32242 ft 466 kts 318°
2026-04-23 21:10 41.44449 -126.27048 32243 ft 466 kts 318°
2026-04-23 21:10 41.49497 -126.32488 32234 ft 466 kts 318°
2026-04-23 21:11 41.54529 -126.37938 32242 ft 466 kts 318°
2026-04-23 21:11 41.59560 -126.43398 32243 ft 466 kts 318°
2026-04-23 21:12 41.64587 -126.48855 32243 ft 464 kts 317°
2026-04-23 21:12 41.69281 -126.54712 32243 ft 458 kts 312°
2026-04-23 21:13 41.73746 -126.60863 32245 ft 457 kts 311°
2026-04-23 21:13 41.78173 -126.66915 32245 ft 458 kts 311°
2026-04-23 21:14 41.82634 -126.73001 32259 ft 458 kts 311°
2026-04-23 21:14 41.87099 -126.79092 32261 ft 458 kts 311°
2026-04-23 21:15 41.91540 -126.85236 32261 ft 458 kts 310°
2026-04-23 21:15 41.95875 -126.91491 32261 ft 457 kts 310°
2026-04-23 21:16 42.00194 -126.97735 32262 ft 456 kts 310°
2026-04-23 21:16 42.04532 -127.04015 32262 ft 461 kts 311°
2026-04-23 21:17 42.08908 -127.10357 32262 ft 462 kts 311°
2026-04-23 21:17 42.13282 -127.16699 32254 ft 462 kts 311°
2026-04-23 21:18 42.17684 -127.22994 32252 ft 462 kts 311°
2026-04-23 21:18 42.22069 -127.29321 32252 ft 461 kts 311°
2026-04-23 21:19 42.26432 -127.35650 32253 ft 461 kts 311°
2026-04-23 21:19 42.30789 -127.41993 32252 ft 461 kts 311°
2026-04-23 21:20 42.35149 -127.48356 32252 ft 460 kts 311°
2026-04-23 21:20 42.39492 -127.54712 32252 ft 460 kts 310°
2026-04-23 21:21 42.43833 -127.61077 32253 ft 460 kts 310°
2026-04-23 21:21 42.48169 -127.67450 32270 ft 460 kts 310°
2026-04-23 21:22 42.52503 -127.73834 32284 ft 461 kts 310°
2026-04-23 21:22 42.56839 -127.80235 32283 ft 461 kts 310°
2026-04-23 21:23 42.61174 -127.86650 32285 ft 461 kts 310°
2026-04-23 21:23 42.65511 -127.93082 32285 ft 462 kts 310°
2026-04-23 21:24 42.69853 -127.99534 32285 ft 463 kts 311°
2026-04-23 21:24 42.74194 -128.06001 32285 ft 464 kts 311°
2026-04-23 21:25 42.78549 -128.12503 32285 ft 465 kts 311°
2026-04-23 21:25 42.82913 -128.19032 32290 ft 467 kts 311°
2026-04-23 21:26 42.87285 -128.25589 32292 ft 468 kts 311°
2026-04-23 21:26 42.91666 -128.32173 32292 ft 470 kts 311°
2026-04-23 21:27 42.96058 -128.38790 32292 ft 471 kts 311°
2026-04-23 21:27 43.00462 -128.45440 32293 ft 472 kts 311°
2026-04-23 21:28 43.04872 -128.52114 32293 ft 474 kts 312°
2026-04-23 21:28 43.08538 -128.57674 32294 ft 474 kts 312°
2026-04-23 21:29 43.12954 -128.64386 32294 ft 475 kts 312°
2026-04-23 21:29 43.17377 -128.71124 32295 ft 475 kts 312°
2026-04-23 21:30 43.21796 -128.77872 32296 ft 476 kts 312°
2026-04-23 21:30 43.26217 -128.84639 32298 ft 477 kts 312°
2026-04-23 21:31 43.30648 -128.91438 32296 ft 478 kts 312°
2026-04-23 21:31 43.35073 -128.98242 32297 ft 478 kts 312°
2026-04-23 21:32 43.39497 -129.05063 32296 ft 478 kts 312°
2026-04-23 21:32 43.43918 -129.11894 32298 ft 479 kts 312°
2026-04-23 21:33 43.48347 -129.18754 32298 ft 480 kts 312°
2026-04-23 21:33 43.52781 -129.25638 32299 ft 480 kts 312°
2026-04-23 21:34 43.57205 -129.32524 32295 ft 481 kts 312°
2026-04-23 21:34 43.61638 -129.39440 32295 ft 482 kts 312°
2026-04-23 21:35 43.66067 -129.46385 32249 ft 483 kts 313°
2026-04-23 21:35 43.70517 -129.53348 32300 ft 484 kts 313°
2026-04-23 21:36 43.77190 -129.63836 32298 ft 485 kts 313°
2026-04-23 21:37 43.81660 -129.70825 32298 ft 485 kts 313°
2026-04-23 21:37 43.86116 -129.77865 32321 ft 486 kts 313°
2026-04-23 21:38 43.90557 -129.84932 32322 ft 486 kts 313°
2026-04-23 21:38 43.95004 -129.92024 32322 ft 487 kts 313°
2026-04-23 21:39 43.99453 -129.99122 32323 ft 487 kts 313°
2026-04-23 21:39 44.03801 -130.06326 32322 ft 487 kts 311°
2026-04-23 21:40 44.08083 -130.13640 32324 ft 487 kts 311°
2026-04-23 21:40 44.12369 -130.20963 32325 ft 487 kts 311°
2026-04-23 21:41 44.16620 -130.28235 32334 ft 487 kts 310°
2026-04-23 21:41 44.20893 -130.35561 32339 ft 488 kts 311°
2026-04-23 21:42 44.25213 -130.42864 32340 ft 488 kts 311°
2026-04-23 21:42 44.29522 -130.50171 32340 ft 488 kts 311°
2026-04-23 21:43 44.33814 -130.57507 32341 ft 488 kts 311°
2026-04-23 21:43 44.38099 -130.64864 32342 ft 488 kts 311°
2026-04-23 21:44 44.42383 -130.72247 32342 ft 488 kts 311°
2026-04-23 21:44 44.46659 -130.79634 32343 ft 488 kts 311°
2026-04-23 21:45 44.50924 -130.87026 32343 ft 488 kts 310°
2026-04-23 21:45 44.55189 -130.94436 32327 ft 488 kts 311°
2026-04-23 21:46 44.59457 -131.01870 32325 ft 489 kts 310°
2026-04-23 21:46 44.63713 -131.09302 32326 ft 489 kts 310°
2026-04-23 21:47 44.67968 -131.16753 32326 ft 489 kts 310°
2026-04-23 21:47 44.72250 -131.24270 32326 ft 489 kts 310°
2026-04-23 21:48 44.76463 -131.31686 32327 ft 489 kts 310°
2026-04-23 21:48 44.80711 -131.39184 32328 ft 490 kts 310°
2026-04-23 21:49 44.84956 -131.46694 32328 ft 490 kts 310°
2026-04-23 21:49 44.89192 -131.54210 32339 ft 490 kts 310°
2026-04-23 21:50 44.93427 -131.61744 32351 ft 490 kts 310°
2026-04-23 21:50 44.97663 -131.69297 32350 ft 490 kts 310°
2026-04-23 21:51 45.01894 -131.76864 32352 ft 491 kts 310°
2026-04-23 21:51 45.06126 -131.84452 32352 ft 491 kts 310°
2026-04-23 21:52 45.10357 -131.92058 32353 ft 492 kts 310°
2026-04-23 21:52 45.14586 -131.99682 32354 ft 492 kts 310°
2026-04-23 21:53 45.18812 -132.07321 32355 ft 494 kts 310°
2026-04-23 21:53 45.23051 -132.15003 32354 ft 494 kts 310°
2026-04-23 21:54 45.27286 -132.22700 32346 ft 495 kts 310°
2026-04-23 21:54 45.31517 -132.30409 32347 ft 495 kts 310°
2026-04-23 21:55 45.35740 -132.38126 32347 ft 495 kts 310°
2026-04-23 21:55 45.39964 -132.45865 32348 ft 496 kts 310°
2026-04-23 21:56 45.44191 -132.53630 32349 ft 496 kts 310°
2026-04-23 21:56 45.48406 -132.61396 32349 ft 496 kts 310°
2026-04-23 21:57 45.52625 -132.69189 32349 ft 496 kts 309°
2026-04-23 21:57 45.56836 -132.76989 32350 ft 497 kts 309°
2026-04-23 21:58 45.61045 -132.84808 32351 ft 497 kts 309°
2026-04-23 21:58 45.65252 -132.92646 32352 ft 497 kts 309°
2026-04-23 21:59 45.69454 -133.00494 32359 ft 497 kts 309°
2026-04-23 21:59 45.73650 -133.08353 32357 ft 497 kts 309°
2026-04-23 22:00 45.79948 -133.20192 32362 ft 498 kts 309°
2026-04-23 22:00 45.84116 -133.28054 32427 ft 499 kts 309°
2026-04-23 22:01 45.88312 -133.35990 32431 ft 499 kts 309°
2026-04-23 22:01 45.92505 -133.43943 32432 ft 500 kts 309°
2026-04-23 22:02 45.96700 -133.51924 32434 ft 501 kts 308°
2026-04-23 22:02 46.00891 -133.59919 32435 ft 501 kts 308°
2026-04-23 22:03 46.05082 -133.67936 32437 ft 502 kts 308°
2026-04-23 22:03 46.09279 -133.75989 32438 ft 502 kts 308°
2026-04-23 22:04 46.13466 -133.84045 32439 ft 502 kts 308°
2026-04-23 22:04 46.17653 -133.92125 32439 ft 503 kts 308°
2026-04-23 22:05 46.21833 -134.00213 32440 ft 503 kts 308°
2026-04-23 22:05 46.26006 -134.08313 32441 ft 502 kts 308°
2026-04-23 22:06 46.30167 -134.16412 32442 ft 502 kts 308°
2026-04-23 22:06 46.34321 -134.24521 32444 ft 502 kts 308°
2026-04-23 22:07 46.38470 -134.32643 32445 ft 501 kts 308°
2026-04-23 22:07 46.42609 -134.40770 32446 ft 501 kts 308°
2026-04-23 22:08 46.46738 -134.48900 32447 ft 500 kts 307°
2026-04-23 22:08 46.50856 -134.57033 32448 ft 500 kts 307°
2026-04-23 22:09 46.54960 -134.65162 32449 ft 499 kts 307°
2026-04-23 22:09 46.59060 -134.73305 32451 ft 499 kts 307°
2026-04-23 22:10 46.63147 -134.81449 32452 ft 498 kts 307°
2026-04-23 22:10 46.66559 -134.88265 32453 ft 497 kts 307°
2026-04-23 22:11 46.70625 -134.96409 32433 ft 497 kts 307°
2026-04-23 22:11 46.74661 -135.04517 32431 ft 497 kts 307°
2026-04-23 22:12 46.78739 -135.12733 32432 ft 496 kts 307°
2026-04-23 22:12 46.82782 -135.20903 32434 ft 497 kts 306°
2026-04-23 22:13 46.86794 -135.29033 32435 ft 497 kts 306°
2026-04-23 22:13 46.90832 -135.37241 32434 ft 496 kts 306°
2026-04-23 22:14 46.94848 -135.45429 32430 ft 496 kts 306°
2026-04-23 22:14 46.98873 -135.53658 32430 ft 496 kts 306°
2026-04-23 22:15 47.02884 -135.61884 32422 ft 496 kts 306°
2026-04-23 22:15 47.06894 -135.70133 32423 ft 496 kts 306°
2026-04-23 22:16 47.10894 -135.78384 32417 ft 496 kts 306°
2026-04-23 22:16 47.14889 -135.86652 32416 ft 497 kts 306°
2026-04-23 22:17 47.18881 -135.94935 32418 ft 497 kts 306°
2026-04-23 22:17 47.22866 -136.03232 32418 ft 497 kts 305°
2026-04-23 22:18 47.26851 -136.11551 32420 ft 497 kts 305°
2026-04-23 22:18 47.30822 -136.19869 32421 ft 497 kts 305°
2026-04-23 22:19 47.34796 -136.28215 32422 ft 497 kts 305°
2026-04-23 22:19 47.38755 -136.36558 32423 ft 497 kts 305°
2026-04-23 22:20 47.42712 -136.44920 32424 ft 497 kts 305°
2026-04-23 22:20 47.46662 -136.53293 32425 ft 497 kts 304°
2026-04-23 22:21 47.50608 -136.61683 32425 ft 497 kts 304°
2026-04-23 22:21 47.54547 -136.70085 32427 ft 497 kts 304°
2026-04-23 22:22 47.58481 -136.78500 32428 ft 497 kts 304°
2026-04-23 22:22 47.62405 -136.86922 32428 ft 497 kts 304°
2026-04-23 22:23 47.66323 -136.95355 32429 ft 497 kts 304°
2026-04-23 22:23 47.70235 -137.03802 32430 ft 497 kts 304°
2026-04-23 22:24 47.74142 -137.12263 32430 ft 497 kts 304°
2026-04-23 22:24 47.78048 -137.20749 32432 ft 498 kts 304°
2026-04-23 22:25 47.81952 -137.29257 32433 ft 497 kts 304°
2026-04-23 22:25 47.85845 -137.37767 32434 ft 497 kts 304°
2026-04-23 22:26 47.89737 -137.46302 32434 ft 498 kts 303°
2026-04-23 22:26 47.93624 -137.54853 32435 ft 498 kts 303°
2026-04-23 22:27 47.97507 -137.63421 32436 ft 498 kts 303°
2026-04-23 22:27 48.01383 -137.72003 32437 ft 498 kts 303°
2026-04-23 22:28 48.05250 -137.80589 32437 ft 498 kts 303°
2026-04-23 22:28 48.09113 -137.89195 32438 ft 498 kts 303°
2026-04-23 22:29 48.12968 -137.97811 32439 ft 498 kts 303°
2026-04-23 22:29 48.16817 -138.06437 32439 ft 498 kts 303°
2026-04-23 22:30 48.20662 -138.15087 32440 ft 498 kts 303°
2026-04-23 22:30 48.24495 -138.23735 32441 ft 498 kts 303°
2026-04-23 22:31 48.28318 -138.32387 32441 ft 497 kts 303°
2026-04-23 22:31 48.32132 -138.41048 32442 ft 497 kts 303°
2026-04-23 22:32 48.35939 -138.49721 32443 ft 496 kts 303°
2026-04-23 22:32 48.39733 -138.58392 32443 ft 496 kts 303°
2026-04-23 22:33 48.43521 -138.67076 32444 ft 496 kts 302°
2026-04-23 22:33 48.47294 -138.75753 32444 ft 495 kts 302°
2026-04-23 22:34 48.51061 -138.84446 32445 ft 495 kts 302°
2026-04-23 22:34 48.54816 -138.93139 32443 ft 494 kts 302°
2026-04-23 22:35 48.58559 -139.01830 32444 ft 494 kts 302°
2026-04-23 22:35 48.62298 -139.10541 32445 ft 494 kts 302°
2026-04-23 22:36 48.66027 -139.19258 32445 ft 493 kts 302°
2026-04-23 22:36 48.69725 -139.27929 32445 ft 493 kts 302°
2026-04-23 22:37 48.73462 -139.36721 32446 ft 493 kts 302°
2026-04-23 22:37 48.77141 -139.45405 32447 ft 493 kts 302°
2026-04-23 22:38 48.80842 -139.54169 32447 ft 493 kts 302°
2026-04-23 22:38 48.84562 -139.62915 32447 ft 493 kts 302°
2026-04-23 22:39 48.88286 -139.71759 32422 ft 494 kts 302°
2026-04-23 22:39 48.91925 -139.80506 32413 ft 493 kts 302°
2026-04-23 22:40 48.95577 -139.89316 32413 ft 492 kts 302°
2026-04-23 22:41 49.01044 -140.02641 32411 ft 492 kts 300°
2026-04-23 22:41 49.04347 -140.11748 32407 ft 490 kts 298°
2026-04-23 22:42 49.07581 -140.20896 32419 ft 490 kts 298°
2026-04-23 22:42 49.10825 -140.30032 32428 ft 490 kts 298°
2026-04-23 22:43 49.14049 -140.39113 32429 ft 490 kts 298°
2026-04-23 22:43 49.17327 -140.48314 32430 ft 490 kts 299°
2026-04-23 22:44 49.20620 -140.57343 32430 ft 489 kts 299°
2026-04-23 22:44 49.23896 -140.66463 32431 ft 489 kts 298°
2026-04-23 22:45 49.27148 -140.75598 32432 ft 489 kts 298°
2026-04-23 22:45 49.30389 -140.84755 32432 ft 488 kts 298°
2026-04-23 22:46 49.33618 -140.93918 32433 ft 489 kts 298°
2026-04-23 22:46 49.36836 -141.03089 32433 ft 488 kts 298°
2026-04-23 22:47 49.40047 -141.12270 32433 ft 489 kts 298°
2026-04-23 22:47 49.43255 -141.21479 32434 ft 489 kts 298°
2026-04-23 22:48 49.46453 -141.30691 32434 ft 488 kts 298°
2026-04-23 22:48 49.49643 -141.39913 32435 ft 489 kts 298°
2026-04-23 22:49 49.52830 -141.49160 32435 ft 490 kts 298°
2026-04-23 22:49 49.56017 -141.58442 32436 ft 490 kts 298°
2026-04-23 22:50 49.58660 -141.66164 32436 ft 490 kts 298°
2026-04-23 22:50 49.62371 -141.77046 32437 ft 491 kts 298°
2026-04-23 22:51 49.65541 -141.86377 32437 ft 491 kts 298°
2026-04-23 22:51 49.68192 -141.94208 32437 ft 492 kts 298°
2026-04-23 22:52 49.71867 -142.05105 32437 ft 492 kts 298°
2026-04-23 22:52 49.74486 -142.12902 32438 ft 491 kts 298°
2026-04-23 22:53 49.77628 -142.22281 32437 ft 491 kts 298°
2026-04-23 22:53 49.80757 -142.31660 32439 ft 490 kts 298°
2026-04-23 22:54 49.83871 -142.41029 32406 ft 489 kts 298°
2026-04-23 22:54 49.86971 -142.50389 32404 ft 488 kts 298°
2026-04-23 22:55 49.90058 -142.59743 32404 ft 486 kts 298°
2026-04-23 22:55 49.93125 -142.69075 32405 ft 484 kts 298°
2026-04-23 22:56 49.96170 -142.78370 32405 ft 482 kts 298°
2026-04-23 22:56 49.99192 -142.87632 32406 ft 480 kts 298°
2026-04-23 22:57 50.02194 -142.96866 32406 ft 478 kts 298°
2026-04-23 22:57 50.05184 -143.06096 32406 ft 477 kts 298°
2026-04-23 22:58 50.08149 -143.15285 32407 ft 474 kts 298°
2026-04-23 22:58 50.11097 -143.24454 32408 ft 472 kts 298°
2026-04-23 22:59 50.14024 -143.33589 32408 ft 470 kts 298°
2026-04-23 22:59 50.16937 -143.42717 32410 ft 469 kts 298°
2026-04-23 23:00 50.19829 -143.51812 32412 ft 467 kts 298°
2026-04-23 23:00 50.22708 -143.60897 32411 ft 466 kts 298°
2026-04-23 23:01 50.25575 -143.69980 32413 ft 465 kts 298°
2026-04-23 23:01 50.28430 -143.79057 32413 ft 465 kts 298°
2026-04-23 23:02 50.31273 -143.88129 32414 ft 465 kts 298°
2026-04-23 23:02 50.34110 -143.97216 32414 ft 465 kts 298°
2026-04-23 23:03 50.36939 -144.06311 32414 ft 464 kts 298°
2026-04-23 23:03 50.39754 -144.15393 32415 ft 464 kts 298°
2026-04-23 23:04 50.42563 -144.24490 32415 ft 463 kts 298°
2026-04-23 23:04 50.45365 -144.33599 32416 ft 464 kts 298°
2026-04-23 23:05 50.48161 -144.42721 32412 ft 463 kts 298°
2026-04-23 23:05 50.50945 -144.51840 32412 ft 463 kts 297°
2026-04-23 23:06 50.53724 -144.60974 32413 ft 463 kts 297°
2026-04-23 23:06 50.56496 -144.70122 32413 ft 463 kts 297°
2026-04-23 23:07 50.59260 -144.79278 32414 ft 463 kts 297°
2026-04-23 23:07 50.62014 -144.88432 32413 ft 463 kts 297°
2026-04-23 23:08 50.64762 -144.97603 32414 ft 463 kts 296°
2026-04-23 23:08 50.67498 -145.06771 32414 ft 462 kts 296°
2026-04-23 23:09 50.70229 -145.15954 32414 ft 462 kts 296°
2026-04-23 23:09 50.72951 -145.25140 32415 ft 463 kts 296°
2026-04-23 23:10 50.75666 -145.34339 32415 ft 463 kts 296°
2026-04-23 23:10 50.78377 -145.43560 32414 ft 462 kts 296°
2026-04-23 23:11 50.81075 -145.52776 32410 ft 462 kts 295°
2026-04-23 23:11 50.83770 -145.62014 32387 ft 462 kts 295°
2026-04-23 23:12 50.86453 -145.71243 32388 ft 462 kts 295°
2026-04-23 23:12 50.89130 -145.80493 32388 ft 462 kts 295°
2026-04-23 23:13 50.91799 -145.89749 32388 ft 462 kts 295°
2026-04-23 23:13 50.94458 -145.99004 32388 ft 462 kts 295°
2026-04-23 23:14 50.97111 -146.08274 32389 ft 460 kts 294°
2026-04-23 23:14 50.99749 -146.17532 32389 ft 460 kts 294°
2026-04-23 23:15 51.02381 -146.26801 32390 ft 460 kts 294°
2026-04-23 23:15 51.05006 -146.36086 32385 ft 461 kts 294°
2026-04-23 23:16 51.07626 -146.45388 32283 ft 461 kts 294°
2026-04-23 23:16 51.10234 -146.54684 32238 ft 460 kts 293°
2026-04-23 23:17 51.12836 -146.63993 32236 ft 460 kts 293°
2026-04-23 23:17 51.15428 -146.73306 32235 ft 460 kts 293°
2026-04-23 23:18 51.18017 -146.82645 32235 ft 460 kts 293°
2026-04-23 23:18 51.20593 -146.91973 32234 ft 460 kts 292°
2026-04-23 23:19 51.23160 -147.01309 32234 ft 460 kts 292°
2026-04-23 23:19 51.25724 -147.10669 32234 ft 460 kts 292°
2026-04-23 23:20 51.28279 -147.20034 32233 ft 459 kts 292°
2026-04-23 23:20 51.30821 -147.29388 32232 ft 460 kts 292°
2026-04-23 23:21 51.33361 -147.38773 32232 ft 459 kts 292°
2026-04-23 23:21 51.35889 -147.48151 32231 ft 459 kts 291°
2026-04-23 23:22 51.38413 -147.57556 32231 ft 459 kts 291°
2026-04-23 23:22 51.40925 -147.66953 32231 ft 459 kts 291°
2026-04-23 23:23 51.43432 -147.76366 32230 ft 459 kts 291°
2026-04-23 23:23 51.45928 -147.85780 32229 ft 459 kts 291°
2026-04-23 23:24 51.48421 -147.95220 32229 ft 460 kts 291°
2026-04-23 23:24 51.50905 -148.04666 32228 ft 459 kts 290°
2026-04-23 23:25 51.53373 -148.14091 32228 ft 458 kts 290°
2026-04-23 23:25 51.55835 -148.23533 32227 ft 458 kts 290°
2026-04-23 23:26 51.58290 -148.32986 32227 ft 458 kts 290°
2026-04-23 23:26 51.60754 -148.42511 32227 ft 458 kts 290°
2026-04-23 23:27 51.63174 -148.51907 32226 ft 457 kts 290°
2026-04-23 23:27 51.65603 -148.61380 32226 ft 458 kts 290°
2026-04-23 23:28 51.68022 -148.70852 32225 ft 457 kts 289°
2026-04-23 23:28 51.70431 -148.80323 32225 ft 457 kts 289°
2026-04-23 23:29 51.72848 -148.89866 32225 ft 456 kts 289°
2026-04-23 23:29 51.74835 -148.97743 32224 ft 456 kts 289°
2026-04-23 23:30 51.77601 -149.08753 32224 ft 455 kts 289°
2026-04-23 23:30 51.79585 -149.16687 32223 ft 454 kts 289°
2026-04-23 23:31 51.81943 -149.26149 32222 ft 454 kts 288°
2026-04-23 23:31 51.84290 -149.35612 32222 ft 453 kts 288°
2026-04-23 23:32 51.86627 -149.45070 32220 ft 453 kts 288°
2026-04-23 23:32 51.88966 -149.54462 32222 ft 452 kts 288°
2026-04-23 23:33 51.91325 -149.63961 32218 ft 452 kts 287°
2026-04-23 23:33 51.93621 -149.73440 32191 ft 451 kts 287°
2026-04-23 23:34 51.95896 -149.82898 32191 ft 451 kts 287°
2026-04-23 23:34 51.98171 -149.92377 32189 ft 451 kts 287°
2026-04-23 23:35 52.00447 -150.01848 32188 ft 451 kts 287°
2026-04-23 23:35 52.02812 -150.11272 32189 ft 451 kts 288°
2026-04-23 23:36 52.05170 -150.20724 32188 ft 451 kts 288°
2026-04-23 23:36 52.07509 -150.30180 32188 ft 451 kts 287°
2026-04-23 23:37 52.09834 -150.39643 32188 ft 451 kts 287°
2026-04-23 23:37 52.12146 -150.49107 32187 ft 450 kts 287°
2026-04-23 23:38 52.14519 -150.58554 32187 ft 451 kts 287°
2026-04-23 23:38 52.16894 -150.67990 32186 ft 450 kts 287°
2026-04-23 23:39 52.19230 -150.77436 32186 ft 449 kts 286°
2026-04-23 23:39 52.21544 -150.86889 32185 ft 449 kts 286°
2026-04-23 23:40 52.23844 -150.96348 32140 ft 448 kts 285°
2026-04-23 23:40 52.26126 -151.05784 32136 ft 447 kts 285°
2026-04-23 23:41 52.28398 -151.15228 32135 ft 446 kts 285°
2026-04-23 23:41 52.30657 -151.24653 32137 ft 446 kts 285°
2026-04-23 23:42 52.32908 -151.34093 32134 ft 445 kts 284°
2026-04-23 23:42 52.35146 -151.43516 32133 ft 444 kts 284°
2026-04-23 23:43 52.37380 -151.52964 32127 ft 445 kts 284°
2026-04-23 23:43 52.39601 -151.62400 32100 ft 444 kts 284°
2026-04-23 23:44 52.41811 -151.71831 32100 ft 443 kts 284°
2026-04-23 23:44 52.43998 -151.81205 32100 ft 443 kts 284°
2026-04-23 23:45 52.46191 -151.90644 32100 ft 443 kts 283°
2026-04-23 23:45 52.48373 -152.00076 32099 ft 442 kts 283°
2026-04-23 23:46 52.50548 -152.09519 32099 ft 442 kts 283°
2026-04-23 23:46 52.52718 -152.18988 32099 ft 443 kts 283°
2026-04-23 23:47 52.54881 -152.28467 32098 ft 443 kts 283°
2026-04-23 23:47 52.57036 -152.37954 32098 ft 443 kts 282°
2026-04-23 23:48 52.59182 -152.47440 32098 ft 443 kts 282°
2026-04-23 23:48 52.61324 -152.56956 32085 ft 443 kts 282°
2026-04-23 23:49 52.64525 -152.71250 32083 ft 444 kts 282°
2026-04-23 23:49 52.66648 -152.80788 32083 ft 443 kts 281°
2026-04-23 23:50 52.68764 -152.90338 32082 ft 443 kts 281°
2026-04-23 23:50 52.70870 -152.99889 32082 ft 444 kts 281°
2026-04-23 23:51 52.72976 -153.09482 32082 ft 444 kts 281°
2026-04-23 23:51 52.75069 -153.19056 32082 ft 444 kts 280°
2026-04-23 23:52 52.77157 -153.28657 32082 ft 444 kts 280°
2026-04-23 23:52 52.79232 -153.38244 32082 ft 444 kts 280°
2026-04-23 23:53 52.81308 -153.47877 32081 ft 444 kts 279°
2026-04-23 23:53 52.83370 -153.57490 32081 ft 444 kts 279°
2026-04-23 23:54 52.85428 -153.67132 32081 ft 445 kts 279°
2026-04-23 23:54 52.87478 -153.76785 32081 ft 444 kts 279°
2026-04-23 23:55 52.89517 -153.86426 32081 ft 444 kts 279°
2026-04-23 23:55 52.91552 -153.96097 32080 ft 445 kts 279°
2026-04-23 23:56 52.93586 -154.05801 32080 ft 446 kts 278°
2026-04-23 23:56 52.95617 -154.15547 32081 ft 448 kts 278°
2026-04-23 23:57 52.97640 -154.25307 32034 ft 447 kts 278°
2026-04-23 23:57 52.99655 -154.35073 32013 ft 447 kts 277°
2026-04-23 23:58 53.01661 -154.44841 32012 ft 448 kts 277°
2026-04-23 23:58 53.03666 -154.54653 32011 ft 448 kts 277°
2026-04-23 23:59 53.05659 -154.64457 32011 ft 449 kts 277°
2026-04-23 23:59 53.07652 -154.74305 32011 ft 449 kts 277°
2026-04-24 00:00 53.09635 -154.84154 32011 ft 450 kts 277°
2026-04-24 00:00 53.11615 -154.94042 32008 ft 450 kts 277°
2026-04-24 00:01 53.13590 -155.03952 32010 ft 451 kts 276°
2026-04-24 00:01 53.15559 -155.13878 32009 ft 452 kts 276°
2026-04-24 00:02 53.17509 -155.23765 32008 ft 452 kts 276°
2026-04-24 00:02 53.19464 -155.33726 32008 ft 453 kts 276°
2026-04-24 00:03 53.21414 -155.43711 32008 ft 453 kts 276°
2026-04-24 00:03 53.23353 -155.53698 32007 ft 452 kts 276°
2026-04-24 00:04 53.25300 -155.63775 32008 ft 454 kts 275°
2026-04-24 00:04 53.27228 -155.73806 31958 ft 453 kts 275°
2026-04-24 00:05 53.29151 -155.83863 31948 ft 454 kts 275°
2026-04-24 00:05 53.31068 -155.93942 31947 ft 456 kts 275°
2026-04-24 00:06 53.32980 -156.04046 31946 ft 456 kts 275°
2026-04-24 00:06 53.34887 -156.14183 31945 ft 457 kts 274°
2026-04-24 00:07 53.36787 -156.24342 31944 ft 458 kts 274°
2026-04-24 00:07 53.38671 -156.34461 31944 ft 458 kts 274°
2026-04-24 00:08 53.40570 -156.44720 31943 ft 458 kts 274°
2026-04-24 00:08 53.42447 -156.54918 31942 ft 458 kts 274°
2026-04-24 00:09 53.44317 -156.65131 31941 ft 458 kts 274°
2026-04-24 00:09 53.45865 -156.73629 31940 ft 458 kts 274°
2026-04-24 00:10 53.47735 -156.83959 31937 ft 467 kts 275°
2026-04-24 00:10 53.49630 -156.94472 31936 ft 474 kts 275°
2026-04-24 00:11 53.51533 -157.05093 31921 ft 475 kts 275°
2026-04-24 00:11 53.53428 -157.15734 31918 ft 475 kts 275°
2026-04-24 00:12 53.55319 -157.26413 31918 ft 477 kts 275°
2026-04-24 00:12 53.57201 -157.37106 31916 ft 477 kts 275°
2026-04-24 00:13 53.59081 -157.47851 31877 ft 479 kts 275°
2026-04-24 00:13 53.60951 -157.58610 31874 ft 480 kts 275°
2026-04-24 00:14 53.62821 -157.69423 32267 ft 480 kts 275°
2026-04-24 00:14 53.63754 -157.74849 32458 ft 481 kts 275°
2026-04-24 00:14 53.64680 -157.80246 32806 ft 479 kts 275°
2026-04-24 00:15 53.65601 -157.85634 33091 ft 478 kts 275°
2026-04-24 00:15 53.66520 -157.91026 33343 ft 478 kts 275°
2026-04-24 00:15 53.67434 -157.96401 33686 ft 475 kts 275°
2026-04-24 00:15 53.68343 -158.01766 33832 ft 476 kts 275°
2026-04-24 00:16 53.70155 -158.12509 33868 ft 476 kts 275°
2026-04-24 00:16 53.71959 -158.23274 33867 ft 476 kts 275°
2026-04-24 00:17 53.73749 -158.34017 33866 ft 476 kts 275°
2026-04-24 00:17 53.75529 -158.44771 33867 ft 476 kts 275°
2026-04-24 00:18 53.77304 -158.55560 33867 ft 476 kts 275°
2026-04-24 00:18 53.79065 -158.66332 33858 ft 475 kts 275°
2026-04-24 00:19 53.80804 -158.77038 33855 ft 476 kts 275°
2026-04-24 00:19 53.82557 -158.87904 33855 ft 476 kts 275°
2026-04-24 00:20 53.84297 -158.98749 33856 ft 477 kts 276°
2026-04-24 00:20 53.86015 -159.09535 33855 ft 477 kts 276°
2026-04-24 00:21 53.87745 -159.20463 33856 ft 478 kts 276°
2026-04-24 00:21 53.89449 -159.31296 33856 ft 479 kts 276°
2026-04-24 00:22 53.91158 -159.42231 33856 ft 480 kts 277°
2026-04-24 00:22 53.92902 -159.53147 33856 ft 480 kts 277°
2026-04-24 00:23 53.94606 -159.64111 33856 ft 481 kts 277°
2026-04-24 00:23 53.96270 -159.75122 33856 ft 481 kts 277°
2026-04-24 00:24 53.97924 -159.86143 33856 ft 481 kts 277°
2026-04-24 00:24 53.99578 -159.97174 33857 ft 482 kts 277°
2026-04-24 00:25 54.01186 -160.08224 33856 ft 481 kts 277°
2026-04-24 00:25 54.02742 -160.19292 33856 ft 481 kts 276°
2026-04-24 00:26 54.04281 -160.30370 33857 ft 481 kts 276°
2026-04-24 00:26 54.05807 -160.41448 33857 ft 481 kts 276°
2026-04-24 00:27 54.07321 -160.52535 33842 ft 481 kts 276°
2026-04-24 00:27 54.08887 -160.63605 33828 ft 482 kts 278°
2026-04-24 00:28 54.10490 -160.74704 33828 ft 482 kts 277°
2026-04-24 00:28 54.12040 -160.85794 33826 ft 481 kts 277°
2026-04-24 00:29 54.13561 -160.96889 33826 ft 480 kts 277°
2026-04-24 00:29 54.15075 -161.08058 33824 ft 480 kts 277°
2026-04-24 00:30 54.16564 -161.19148 33824 ft 479 kts 277°
2026-04-24 00:30 54.18038 -161.30218 33823 ft 478 kts 277°
2026-04-24 00:31 54.19500 -161.41279 33821 ft 477 kts 277°
2026-04-24 00:31 54.20949 -161.52335 33820 ft 477 kts 278°
2026-04-24 00:32 54.22377 -161.63313 33818 ft 476 kts 278°
2026-04-24 00:32 54.23811 -161.74424 33818 ft 475 kts 278°
2026-04-24 00:33 54.25224 -161.85456 33816 ft 475 kts 278°
2026-04-24 00:33 54.26617 -161.96417 33816 ft 474 kts 278°
2026-04-24 00:34 54.28008 -162.07451 33814 ft 475 kts 278°
2026-04-24 00:34 54.29399 -162.18572 33813 ft 475 kts 277°
2026-04-24 00:35 54.30771 -162.29630 33799 ft 475 kts 277°
2026-04-24 00:35 54.32132 -162.40689 33774 ft 475 kts 277°
2026-04-24 00:36 54.33485 -162.51768 33773 ft 475 kts 277°
2026-04-24 00:36 54.34826 -162.62847 33772 ft 476 kts 277°
2026-04-24 00:37 54.36162 -162.73970 33770 ft 476 kts 277°
2026-04-24 00:37 54.37479 -162.85027 33734 ft 476 kts 277°
2026-04-24 00:38 54.38801 -162.96221 33732 ft 476 kts 277°
2026-04-24 00:38 54.40098 -163.07294 33732 ft 477 kts 277°
2026-04-24 00:39 54.41393 -163.18446 33731 ft 476 kts 277°
2026-04-24 00:39 54.42676 -163.29590 33731 ft 476 kts 277°
2026-04-24 00:40 54.43956 -163.40813 33730 ft 476 kts 277°
2026-04-24 00:40 54.45218 -163.51968 33729 ft 476 kts 277°
2026-04-24 00:41 54.46458 -163.63018 33727 ft 471 kts 277°
2026-04-24 00:41 54.47683 -163.74040 33727 ft 470 kts 277°
2026-04-24 00:42 54.48901 -163.85094 33726 ft 470 kts 277°
2026-04-24 00:42 54.50107 -163.96142 33724 ft 470 kts 277°
2026-04-24 00:43 54.51304 -164.07196 33718 ft 470 kts 277°
2026-04-24 00:43 54.52491 -164.18259 33710 ft 470 kts 277°
2026-04-24 00:44 54.53667 -164.29331 33707 ft 470 kts 277°
2026-04-24 00:44 54.54835 -164.40422 33704 ft 471 kts 277°
2026-04-24 00:45 54.55994 -164.51530 33702 ft 471 kts 277°
2026-04-24 00:45 54.57144 -164.62648 33699 ft 471 kts 277°
2026-04-24 00:46 54.58283 -164.73775 33696 ft 471 kts 276°
2026-04-24 00:46 54.59406 -164.84853 33693 ft 472 kts 276°
2026-04-24 00:47 54.60527 -164.96013 33691 ft 472 kts 276°
2026-04-24 00:47 54.61637 -165.07169 33689 ft 472 kts 276°
2026-04-24 00:48 54.62738 -165.18351 33687 ft 473 kts 276°
2026-04-24 00:48 54.63829 -165.29537 33685 ft 473 kts 276°
2026-04-24 00:49 54.64910 -165.40732 33683 ft 473 kts 276°
2026-04-24 00:49 54.65981 -165.51942 33682 ft 473 kts 276°
2026-04-24 00:50 54.67041 -165.63143 33680 ft 473 kts 276°
2026-04-24 00:50 54.68093 -165.74375 33679 ft 473 kts 276°
2026-04-24 00:51 54.69132 -165.85597 33678 ft 473 kts 276°
2026-04-24 00:51 54.70161 -165.96812 33677 ft 473 kts 276°
2026-04-24 00:52 54.71018 -166.06249 33676 ft 473 kts 275°
2026-04-24 00:52 54.72030 -166.17511 33675 ft 474 kts 275°
2026-04-24 00:53 54.73032 -166.28777 33674 ft 474 kts 275°
2026-04-24 00:53 54.74024 -166.40053 33673 ft 474 kts 275°
2026-04-24 00:54 54.75005 -166.51329 33672 ft 474 kts 275°
2026-04-24 00:54 54.75977 -166.62628 33670 ft 474 kts 275°
2026-04-24 00:55 54.76937 -166.73918 33669 ft 474 kts 275°
2026-04-24 00:55 54.77888 -166.85227 33668 ft 474 kts 275°
2026-04-24 00:56 54.78828 -166.96542 33665 ft 475 kts 275°
2026-04-24 00:56 54.79758 -167.07866 33664 ft 475 kts 274°
2026-04-24 00:57 54.80678 -167.19200 33662 ft 475 kts 274°
2026-04-24 00:58 54.82039 -167.36218 33658 ft 475 kts 274°
2026-04-24 00:58 54.82933 -167.47571 33655 ft 475 kts 274°
2026-04-24 00:59 54.83816 -167.58924 33652 ft 475 kts 274°
2026-04-24 00:59 54.84689 -167.70286 33650 ft 475 kts 274°
2026-04-24 01:00 54.85552 -167.81668 33645 ft 475 kts 274°
2026-04-24 01:00 54.86405 -167.93050 33640 ft 475 kts 274°
2026-04-24 01:01 54.87241 -168.04360 33637 ft 475 kts 273°
2026-04-24 01:01 54.88079 -168.15840 33633 ft 476 kts 273°
2026-04-24 01:02 54.88901 -168.27259 33629 ft 476 kts 273°
2026-04-24 01:02 54.89711 -168.38673 33625 ft 476 kts 273°
2026-04-24 01:03 54.90512 -168.50102 33622 ft 476 kts 273°
2026-04-24 01:03 54.91307 -168.61606 33618 ft 476 kts 273°
2026-04-24 01:04 54.92080 -168.72962 33603 ft 476 kts 273°
2026-04-24 01:04 54.92853 -168.84466 33596 ft 476 kts 272°
2026-04-24 01:05 54.93610 -168.95900 33591 ft 476 kts 272°
2026-04-24 01:05 54.94357 -169.07344 33588 ft 476 kts 272°
2026-04-24 01:06 54.95093 -169.18803 33585 ft 477 kts 272°
2026-04-24 01:06 54.95819 -169.30264 33582 ft 477 kts 272°
2026-04-24 01:07 54.96534 -169.41726 33580 ft 477 kts 272°
2026-04-24 01:07 54.97302 -169.53195 33578 ft 477 kts 272°
2026-04-24 01:08 54.97994 -169.64686 33575 ft 477 kts 272°
2026-04-24 01:08 54.98651 -169.76159 33549 ft 476 kts 271°
2026-04-24 01:09 54.99301 -169.87637 33544 ft 476 kts 271°
2026-04-24 01:09 54.99952 -169.99129 33543 ft 476 kts 271°
2026-04-24 01:10 55.00463 -170.10630 33541 ft 476 kts 269°
2026-04-24 01:10 55.00865 -170.22125 33540 ft 475 kts 269°
2026-04-24 01:11 55.01263 -170.33605 33566 ft 475 kts 269°
2026-04-24 01:11 55.01654 -170.45093 33566 ft 475 kts 269°
2026-04-24 01:12 55.02033 -170.56589 33566 ft 475 kts 269°
2026-04-24 01:12 55.02492 -170.68145 33565 ft 475 kts 270°
2026-04-24 01:13 55.02955 -170.79543 33565 ft 475 kts 270°
2026-04-24 01:13 55.03375 -170.91096 33565 ft 475 kts 269°
2026-04-24 01:14 55.03766 -171.02599 33565 ft 475 kts 269°
2026-04-24 01:14 55.04140 -171.14081 33566 ft 474 kts 269°
2026-04-24 01:15 55.04501 -171.25623 33567 ft 474 kts 269°
2026-04-24 01:15 55.04851 -171.37140 33567 ft 474 kts 269°
2026-04-24 01:16 55.05187 -171.48609 33569 ft 474 kts 269°
2026-04-24 01:16 55.05513 -171.60094 33570 ft 474 kts 269°
2026-04-24 01:17 55.05827 -171.71570 33570 ft 473 kts 269°
2026-04-24 01:17 55.06131 -171.83035 33587 ft 473 kts 269°
2026-04-24 01:18 55.06424 -171.94515 33588 ft 473 kts 269°
2026-04-24 01:18 55.06705 -172.05975 33589 ft 473 kts 269°
2026-04-24 01:19 55.06976 -172.17431 33590 ft 472 kts 268°
2026-04-24 01:19 55.07236 -172.28884 33594 ft 472 kts 268°
2026-04-24 01:20 55.07487 -172.40404 33598 ft 477 kts 268°
2026-04-24 01:20 55.07726 -172.51884 33599 ft 476 kts 268°
2026-04-24 01:21 55.07955 -172.63428 33600 ft 476 kts 268°
2026-04-24 01:21 55.08174 -172.74991 33601 ft 476 kts 268°
2026-04-24 01:22 55.08381 -172.86526 33603 ft 476 kts 268°
2026-04-24 01:22 55.08578 -172.98085 33605 ft 476 kts 268°
2026-04-24 01:23 55.08764 -173.09646 33605 ft 476 kts 268°
2026-04-24 01:23 55.08910 -173.19309 33607 ft 476 kts 268°
2026-04-24 01:24 55.09103 -173.32817 33611 ft 476 kts 268°
2026-04-24 01:24 55.09231 -173.42409 33612 ft 475 kts 268°
2026-04-24 01:25 55.09376 -173.54123 33613 ft 475 kts 268°
2026-04-24 01:25 55.09510 -173.65834 33615 ft 475 kts 268°
2026-04-24 01:26 55.09633 -173.77431 33616 ft 475 kts 268°
2026-04-24 01:26 55.09743 -173.89033 33617 ft 475 kts 268°
2026-04-24 01:27 55.09844 -174.00645 33618 ft 475 kts 268°
2026-04-24 01:27 55.09932 -174.12166 33620 ft 474 kts 268°
2026-04-24 01:28 55.10009 -174.23673 33624 ft 474 kts 268°
2026-04-24 01:28 55.10076 -174.35190 33630 ft 474 kts 267°
2026-04-24 01:29 55.10131 -174.46690 33631 ft 474 kts 267°
2026-04-24 01:29 55.10176 -174.58195 33632 ft 474 kts 267°
2026-04-24 01:30 55.10210 -174.69711 33634 ft 474 kts 267°
2026-04-24 01:30 55.10233 -174.81211 33635 ft 474 kts 267°
2026-04-24 01:31 55.10246 -174.92803 33636 ft 474 kts 267°
2026-04-24 01:31 55.10247 -175.04307 33637 ft 474 kts 267°
2026-04-24 01:32 55.10238 -175.15730 33638 ft 474 kts 267°
2026-04-24 01:32 55.10217 -175.27236 33639 ft 474 kts 267°
2026-04-24 01:33 55.10186 -175.38744 33640 ft 474 kts 266°
2026-04-24 01:33 55.10144 -175.50234 33640 ft 473 kts 266°
2026-04-24 01:34 55.10092 -175.61726 33642 ft 473 kts 266°
2026-04-24 01:34 55.10028 -175.73200 33643 ft 473 kts 266°
2026-04-24 01:35 55.09954 -175.84686 33643 ft 473 kts 266°
2026-04-24 01:35 55.09869 -175.96165 33645 ft 472 kts 266°
2026-04-24 01:36 55.09773 -176.07629 33646 ft 472 kts 266°
2026-04-24 01:36 55.09667 -176.19096 33647 ft 472 kts 266°
2026-04-24 01:37 55.09550 -176.30560 33648 ft 472 kts 266°
2026-04-24 01:37 55.09422 -176.42031 33649 ft 472 kts 266°
2026-04-24 01:38 55.09283 -176.53489 33650 ft 472 kts 266°
2026-04-24 01:38 55.09134 -176.64944 33650 ft 472 kts 266°
2026-04-24 01:39 55.08973 -176.76417 33644 ft 473 kts 266°
2026-04-24 01:39 55.08802 -176.87896 33644 ft 472 kts 266°
2026-04-24 01:40 55.08621 -176.99275 33645 ft 472 kts 265°
2026-04-24 01:40 55.08428 -177.10739 33646 ft 472 kts 265°
2026-04-24 01:41 55.08224 -177.22274 33647 ft 472 kts 265°
2026-04-24 01:41 55.08012 -177.33643 33648 ft 472 kts 265°
2026-04-24 01:42 55.07787 -177.45106 33657 ft 472 kts 265°
2026-04-24 01:42 55.07551 -177.56562 33658 ft 472 kts 265°
2026-04-24 01:43 55.07305 -177.68019 33659 ft 472 kts 265°
2026-04-24 01:43 55.07048 -177.79470 33660 ft 472 kts 265°
2026-04-24 01:44 55.06781 -177.90920 33660 ft 472 kts 265°
2026-04-24 01:44 55.06502 -178.02380 33660 ft 472 kts 265°
2026-04-24 01:45 55.06213 -178.13820 33661 ft 472 kts 265°
2026-04-24 01:45 55.05913 -178.25271 33661 ft 472 kts 265°
2026-04-24 01:46 55.05602 -178.36709 33661 ft 472 kts 265°
2026-04-24 01:46 55.05280 -178.48169 33662 ft 473 kts 265°
2026-04-24 01:47 55.04948 -178.59634 33662 ft 473 kts 265°
2026-04-24 01:47 55.04602 -178.71161 33662 ft 473 kts 265°
2026-04-24 01:48 55.04248 -178.82617 33663 ft 473 kts 265°
2026-04-24 01:48 55.03883 -178.94076 33663 ft 474 kts 264°
2026-04-24 01:49 55.03507 -179.05534 33663 ft 473 kts 264°
2026-04-24 01:49 55.03120 -179.16994 33663 ft 474 kts 264°
2026-04-24 01:50 55.02723 -179.28462 33664 ft 474 kts 264°
2026-04-24 01:50 55.02314 -179.39927 33664 ft 474 kts 264°
2026-04-24 01:51 55.01952 -179.51395 33664 ft 474 kts 265°
2026-04-24 01:51 55.01530 -179.62857 33664 ft 474 kts 264°
2026-04-24 01:52 55.01145 -179.72377 33664 ft 474 kts 264°
2026-04-24 01:52 55.00667 -179.83929 33665 ft 474 kts 264°
2026-04-24 01:53 55.00115 -179.97242 33664 ft 474 kts 264°
2026-04-24 01:53 54.99597 179.93181 33701 ft 474 kts 261°
2026-04-24 01:54 54.98694 179.81818 33774 ft 474 kts 260°
2026-04-24 01:54 54.97776 179.70451 33778 ft 475 kts 261°
2026-04-24 01:55 54.96863 179.59073 33778 ft 474 kts 261°
2026-04-24 01:55 54.95947 179.47707 33778 ft 474 kts 261°
2026-04-24 01:56 54.95061 179.36338 33777 ft 474 kts 262°
2026-04-24 01:56 54.94249 179.24960 33777 ft 474 kts 261°
2026-04-24 01:57 54.93380 179.13589 33776 ft 473 kts 261°
2026-04-24 01:57 54.92482 179.02255 33776 ft 473 kts 261°
2026-04-24 01:58 54.91566 178.90937 33775 ft 473 kts 260°
2026-04-24 01:58 54.90640 178.79657 33775 ft 473 kts 260°
2026-04-24 01:59 54.89698 178.68342 33774 ft 473 kts 260°
2026-04-24 01:59 54.88746 178.57039 33774 ft 473 kts 260°
2026-04-24 02:00 54.87783 178.45739 33774 ft 473 kts 260°
2026-04-24 02:00 54.86810 178.34439 33773 ft 472 kts 260°
2026-04-24 02:01 54.85828 178.23180 33773 ft 472 kts 260°
2026-04-24 02:01 54.84836 178.11926 33772 ft 472 kts 260°
2026-04-24 02:02 54.83834 178.00678 33771 ft 472 kts 259°
2026-04-24 02:02 54.82816 177.89374 33772 ft 471 kts 259°
2026-04-24 02:03 54.81281 177.72557 33771 ft 471 kts 259°
2026-04-24 02:03 54.80245 177.61355 33771 ft 471 kts 259°
2026-04-24 02:04 54.79200 177.50166 33778 ft 471 kts 259°
2026-04-24 02:04 54.78141 177.38961 33779 ft 471 kts 259°
2026-04-24 02:05 54.77072 177.27748 33778 ft 472 kts 259°
2026-04-24 02:05 54.75993 177.16558 33778 ft 471 kts 259°
2026-04-24 02:06 54.74905 177.05377 33777 ft 471 kts 259°
2026-04-24 02:06 54.73807 176.94206 33776 ft 471 kts 259°
2026-04-24 02:07 54.72699 176.83047 33776 ft 471 kts 259°
2026-04-24 02:07 54.71580 176.71892 33776 ft 471 kts 259°
2026-04-24 02:08 54.70452 176.60741 33775 ft 470 kts 258°
2026-04-24 02:08 54.69314 176.49617 33775 ft 470 kts 258°
2026-04-24 02:09 54.68169 176.38514 33774 ft 470 kts 258°
2026-04-24 02:09 54.67012 176.27409 33788 ft 469 kts 258°
2026-04-24 02:10 54.65845 176.16308 33791 ft 469 kts 258°
2026-04-24 02:10 54.64669 176.05223 33791 ft 469 kts 258°
2026-04-24 02:11 54.63486 175.94167 33791 ft 468 kts 258°
2026-04-24 02:11 54.62291 175.83111 33791 ft 468 kts 258°
2026-04-24 02:12 54.61088 175.72073 33790 ft 469 kts 258°
2026-04-24 02:12 54.59872 175.61022 33790 ft 469 kts 258°
2026-04-24 02:13 54.58656 175.50061 33790 ft 469 kts 258°
2026-04-24 02:13 54.57422 175.39034 33789 ft 469 kts 258°
2026-04-24 02:14 54.56167 175.27928 33789 ft 469 kts 258°
2026-04-24 02:14 54.54920 175.16979 33789 ft 469 kts 257°
2026-04-24 02:15 54.53656 175.05973 33789 ft 469 kts 257°
2026-04-24 02:15 54.52380 174.94962 33788 ft 469 kts 257°
2026-04-24 02:16 54.51095 174.83957 33788 ft 469 kts 257°
2026-04-24 02:16 54.49800 174.72965 33788 ft 469 kts 257°
2026-04-24 02:17 54.48495 174.61986 33787 ft 468 kts 257°
2026-04-24 02:17 54.47185 174.51048 33788 ft 468 kts 257°
2026-04-24 02:18 54.45864 174.40106 33787 ft 467 kts 257°
2026-04-24 02:18 54.44534 174.29182 33787 ft 466 kts 257°
2026-04-24 02:19 54.43197 174.18283 33787 ft 466 kts 257°
2026-04-24 02:19 54.41854 174.07427 33787 ft 465 kts 257°
2026-04-24 02:20 54.40498 173.96549 33784 ft 465 kts 257°
2026-04-24 02:20 54.39134 173.85689 33785 ft 466 kts 257°
2026-04-24 02:21 54.37760 173.74843 33785 ft 466 kts 257°
2026-04-24 02:21 54.36375 173.63986 33785 ft 466 kts 256°
2026-04-24 02:22 54.34980 173.53135 33785 ft 467 kts 256°
2026-04-24 02:22 54.33572 173.42266 33785 ft 467 kts 256°
2026-04-24 02:23 54.32191 173.31384 33785 ft 468 kts 257°
2026-04-24 02:23 54.30787 173.20503 33785 ft 468 kts 256°
2026-04-24 02:24 54.29326 173.09634 33785 ft 468 kts 256°
2026-04-24 02:24 54.27852 172.98766 33785 ft 469 kts 256°
2026-04-24 02:25 54.26373 172.87886 33785 ft 470 kts 256°
2026-04-24 02:25 54.24712 172.77090 33785 ft 469 kts 252°
2026-04-24 02:26 54.22655 172.66525 33785 ft 468 kts 250°
2026-04-24 02:26 54.20556 172.55980 33785 ft 468 kts 251°
2026-04-24 02:27 54.18472 172.45453 33785 ft 468 kts 251°
2026-04-24 02:27 54.16390 172.34945 33785 ft 467 kts 251°
2026-04-24 02:28 54.14313 172.24424 33786 ft 468 kts 251°
2026-04-24 02:28 54.12327 172.13887 33785 ft 467 kts 251°
2026-04-24 02:29 54.10293 172.03386 33786 ft 467 kts 251°
2026-04-24 02:29 54.08242 171.92976 33786 ft 467 kts 251°
2026-04-24 02:30 54.06160 171.82504 33786 ft 467 kts 250°
2026-04-24 02:30 54.04409 171.73753 33786 ft 467 kts 250°
2026-04-24 02:31 54.02304 171.63294 33786 ft 468 kts 250°
2026-04-24 02:31 54.00187 171.52834 33785 ft 468 kts 250°
2026-04-24 02:32 53.98062 171.42391 33787 ft 466 kts 250°
2026-04-24 02:32 53.95942 171.32024 33787 ft 465 kts 250°
2026-04-24 02:33 53.93811 171.21657 33787 ft 465 kts 250°
2026-04-24 02:33 53.91672 171.11308 33787 ft 465 kts 250°
2026-04-24 02:34 53.89523 171.00967 33787 ft 465 kts 250°
2026-04-24 02:34 53.87364 170.90627 33787 ft 466 kts 250°
2026-04-24 02:35 53.85192 170.80278 33787 ft 466 kts 250°
2026-04-24 02:35 53.83014 170.69953 33788 ft 466 kts 250°
2026-04-24 02:36 53.80820 170.59609 33788 ft 467 kts 250°
2026-04-24 02:36 53.78617 170.49271 33788 ft 468 kts 250°
2026-04-24 02:37 53.76413 170.38984 33788 ft 468 kts 250°
2026-04-24 02:37 53.74172 170.28578 33782 ft 469 kts 250°
2026-04-24 02:38 53.71934 170.18232 33781 ft 469 kts 250°
2026-04-24 02:38 53.69683 170.07883 33782 ft 469 kts 250°
2026-04-24 02:39 53.67426 169.97560 33782 ft 469 kts 250°
2026-04-24 02:39 53.65176 169.87317 33782 ft 469 kts 250°
2026-04-24 02:40 53.62902 169.77017 33781 ft 469 kts 250°
2026-04-24 02:40 53.60619 169.66725 33781 ft 468 kts 250°
2026-04-24 02:41 53.58331 169.56465 33781 ft 468 kts 250°
2026-04-24 02:41 53.56035 169.46216 33781 ft 467 kts 250°
2026-04-24 02:42 53.53734 169.35997 33782 ft 467 kts 250°
2026-04-24 02:42 53.51428 169.25804 33780 ft 466 kts 250°
2026-04-24 02:43 53.49114 169.15623 33781 ft 467 kts 250°
2026-04-24 02:43 53.46791 169.05454 33781 ft 466 kts 250°
2026-04-24 02:44 53.44464 168.95314 33780 ft 466 kts 250°
2026-04-24 02:44 53.42129 168.85185 33780 ft 466 kts 250°
2026-04-24 02:45 53.39835 168.75016 33780 ft 466 kts 250°
2026-04-24 02:45 53.37472 168.64902 33780 ft 466 kts 249°
2026-04-24 02:46 53.35087 168.54802 33780 ft 466 kts 249°
2026-04-24 02:46 53.32696 168.44710 33779 ft 466 kts 249°
2026-04-24 02:47 53.30259 168.34662 33779 ft 467 kts 246°
2026-04-24 02:47 53.27248 168.25039 33779 ft 468 kts 242°
2026-04-24 02:48 53.23995 168.15627 33778 ft 468 kts 241°
2026-04-24 02:48 53.20756 168.06199 33779 ft 468 kts 242°
2026-04-24 02:49 53.17550 167.96834 33777 ft 468 kts 242°
2026-04-24 02:49 53.14322 167.87414 33778 ft 467 kts 242°
2026-04-24 02:50 53.11158 167.77970 33778 ft 467 kts 243°
2026-04-24 02:50 53.08006 167.68556 33777 ft 466 kts 242°
2026-04-24 02:51 53.04816 167.59166 33777 ft 466 kts 242°
2026-04-24 02:51 53.01616 167.49819 33777 ft 465 kts 242°
2026-04-24 02:52 52.98406 167.40494 33777 ft 465 kts 242°
2026-04-24 02:52 52.95189 167.31190 33775 ft 464 kts 242°
2026-04-24 02:53 52.91971 167.21918 33775 ft 464 kts 242°
2026-04-24 02:53 52.88742 167.12651 33770 ft 464 kts 242°
2026-04-24 02:54 52.85491 167.03354 33769 ft 464 kts 242°
2026-04-24 02:54 52.82249 166.94119 33768 ft 464 kts 242°
2026-04-24 02:55 52.79005 166.84913 33768 ft 463 kts 242°
2026-04-24 02:55 52.75755 166.75724 33768 ft 463 kts 242°
2026-04-24 02:56 52.72501 166.66555 33767 ft 463 kts 242°
2026-04-24 02:56 52.70872 166.61979 33908 ft 463 kts 242°
2026-04-24 02:56 52.69241 166.57406 34158 ft 463 kts 242°
2026-04-24 02:57 52.67609 166.52837 34433 ft 463 kts 242°
2026-04-24 02:57 52.65971 166.48260 34620 ft 464 kts 242°
2026-04-24 02:57 52.64330 166.43682 34749 ft 465 kts 242°
2026-04-24 02:57 52.62685 166.39103 34763 ft 464 kts 242°
2026-04-24 02:58 52.59403 166.29990 34768 ft 463 kts 242°
2026-04-24 02:58 52.56131 166.20940 34767 ft 463 kts 242°
2026-04-24 02:59 52.52818 166.11806 34766 ft 462 kts 242°
2026-04-24 02:59 52.49545 166.02818 34766 ft 462 kts 242°
2026-04-24 03:00 52.46246 165.93788 34766 ft 461 kts 242°
2026-04-24 03:00 52.42948 165.84795 34766 ft 461 kts 242°
2026-04-24 03:01 52.39632 165.75785 34765 ft 461 kts 242°
2026-04-24 03:01 52.36315 165.66805 34764 ft 461 kts 242°
2026-04-24 03:02 52.32991 165.57836 34764 ft 461 kts 242°
2026-04-24 03:02 52.29655 165.48866 34763 ft 462 kts 241°
2026-04-24 03:03 52.26311 165.39908 34763 ft 463 kts 241°
2026-04-24 03:03 52.22954 165.30948 34763 ft 462 kts 241°
2026-04-24 03:04 52.19592 165.22003 34762 ft 462 kts 241°
2026-04-24 03:04 52.16222 165.13071 34761 ft 463 kts 241°
2026-04-24 03:05 52.12839 165.04135 34761 ft 464 kts 241°
2026-04-24 03:05 52.09448 164.95209 34761 ft 463 kts 241°
2026-04-24 03:06 52.06057 164.86314 34761 ft 463 kts 241°
2026-04-24 03:06 52.02656 164.77423 34760 ft 463 kts 241°
2026-04-24 03:07 51.99251 164.68554 34762 ft 462 kts 241°
2026-04-24 03:07 51.95865 164.59763 34759 ft 457 kts 241°
2026-04-24 03:08 51.90814 164.46707 34758 ft 459 kts 241°
2026-04-24 03:09 51.87414 164.37957 34758 ft 459 kts 241°
2026-04-24 03:09 51.84009 164.29221 34757 ft 459 kts 241°
2026-04-24 03:10 51.80577 164.20447 34755 ft 458 kts 240°
2026-04-24 03:10 51.77201 164.11790 34756 ft 458 kts 241°
2026-04-24 03:11 51.73789 164.03026 34755 ft 458 kts 240°
2026-04-24 03:11 51.70350 163.94361 34754 ft 459 kts 240°
2026-04-24 03:12 51.66904 163.85721 34754 ft 458 kts 240°
2026-04-24 03:12 51.63457 163.77097 34754 ft 458 kts 240°
2026-04-24 03:13 51.60015 163.68486 34754 ft 457 kts 240°
2026-04-24 03:13 51.56581 163.59964 34753 ft 456 kts 240°
2026-04-24 03:14 51.53117 163.51411 34753 ft 456 kts 240°
2026-04-24 03:14 51.49650 163.42887 34752 ft 456 kts 240°
2026-04-24 03:15 51.46744 163.35764 34752 ft 455 kts 240°
2026-04-24 03:15 51.43275 163.27287 34752 ft 454 kts 240°
2026-04-24 03:16 51.39845 163.18781 34751 ft 454 kts 240°
2026-04-24 03:16 51.36432 163.10289 34752 ft 453 kts 240°
2026-04-24 03:17 51.32993 163.01842 34751 ft 453 kts 240°
2026-04-24 03:17 51.29539 162.93414 34751 ft 453 kts 240°
2026-04-24 03:18 51.26045 162.84931 34751 ft 453 kts 240°
2026-04-24 03:18 51.22578 162.76547 34750 ft 452 kts 240°
2026-04-24 03:19 51.19106 162.68179 34750 ft 452 kts 240°
2026-04-24 03:19 51.15629 162.59825 34750 ft 452 kts 240°
2026-04-24 03:20 51.12173 162.51550 34750 ft 452 kts 240°
2026-04-24 03:20 51.08683 162.43220 34749 ft 452 kts 240°
2026-04-24 03:21 51.05194 162.34919 34750 ft 451 kts 239°
2026-04-24 03:21 51.01696 162.26625 34750 ft 451 kts 239°
2026-04-24 03:22 50.98206 162.18374 34749 ft 450 kts 239°
2026-04-24 03:22 50.94717 162.10152 34749 ft 449 kts 239°
2026-04-24 03:23 50.91223 162.01943 34749 ft 449 kts 239°
2026-04-24 03:23 50.87735 161.93775 34749 ft 448 kts 239°
2026-04-24 03:24 50.84236 161.85607 34749 ft 448 kts 239°
2026-04-24 03:24 50.80737 161.77463 34749 ft 447 kts 239°
2026-04-24 03:25 50.77218 161.69300 34749 ft 447 kts 239°
2026-04-24 03:25 50.73713 161.61193 34749 ft 446 kts 239°
2026-04-24 03:26 50.70207 161.53109 34749 ft 446 kts 239°
2026-04-24 03:26 50.66700 161.45048 34749 ft 446 kts 239°
2026-04-24 03:27 50.63183 161.36990 34750 ft 446 kts 239°
2026-04-24 03:27 50.59662 161.28945 34749 ft 446 kts 239°
2026-04-24 03:28 50.56136 161.20914 34749 ft 446 kts 239°
2026-04-24 03:28 50.52609 161.12906 34749 ft 445 kts 239°
2026-04-24 03:29 50.49102 161.04968 34750 ft 445 kts 239°
2026-04-24 03:29 50.45565 160.96984 34750 ft 445 kts 239°
2026-04-24 03:30 50.42000 160.88963 34749 ft 445 kts 239°
2026-04-24 03:30 50.38458 160.81016 34750 ft 445 kts 239°
2026-04-24 03:31 50.34940 160.73025 34750 ft 445 kts 238°
2026-04-24 03:31 50.31384 160.65105 35034 ft 445 kts 238°
2026-04-24 03:31 50.29596 160.61147 35290 ft 445 kts 238°
2026-04-24 03:32 50.27808 160.57195 35468 ft 446 kts 238°
2026-04-24 03:32 50.26014 160.53237 35707 ft 446 kts 238°
2026-04-24 03:32 50.24223 160.49288 35743 ft 446 kts 238°
2026-04-24 03:33 50.20638 160.41391 35751 ft 445 kts 238°
2026-04-24 03:33 50.17045 160.33520 35751 ft 445 kts 238°
2026-04-24 03:34 50.13436 160.25687 35751 ft 444 kts 238°
2026-04-24 03:34 50.09855 160.17939 35752 ft 444 kts 237°
2026-04-24 03:35 50.06244 160.10149 35752 ft 444 kts 237°
2026-04-24 03:35 50.02628 160.02365 35753 ft 444 kts 237°
2026-04-24 03:36 49.99015 159.94585 35753 ft 443 kts 238°
2026-04-24 03:36 49.95449 159.86777 35753 ft 443 kts 238°
2026-04-24 03:37 49.91843 159.79001 35758 ft 443 kts 237°
2026-04-24 03:37 49.88256 159.71238 35753 ft 442 kts 238°
2026-04-24 03:38 49.84652 159.63511 35754 ft 442 kts 237°
2026-04-24 03:38 49.81020 159.55817 35755 ft 442 kts 237°
2026-04-24 03:39 49.77393 159.48165 35755 ft 441 kts 237°
2026-04-24 03:39 49.73755 159.40503 35756 ft 441 kts 237°
2026-04-24 03:40 49.70122 159.32866 35755 ft 441 kts 237°
2026-04-24 03:40 49.66414 159.25329 35757 ft 440 kts 236°
2026-04-24 03:41 49.62700 159.17827 35757 ft 440 kts 236°
2026-04-24 03:41 49.58984 159.10337 35758 ft 440 kts 236°
2026-04-24 03:42 49.55261 159.02852 35759 ft 440 kts 236°
2026-04-24 03:42 49.51533 158.95377 35760 ft 440 kts 236°
2026-04-24 03:43 49.47842 158.87875 35760 ft 440 kts 237°
2026-04-24 03:43 49.44161 158.80373 35760 ft 440 kts 236°
2026-04-24 03:44 49.40458 158.72903 35761 ft 440 kts 236°
2026-04-24 03:44 49.36739 158.65449 35762 ft 439 kts 236°
2026-04-24 03:45 49.33016 158.58017 35763 ft 439 kts 236°
2026-04-24 03:45 49.29310 158.50646 35763 ft 439 kts 236°
2026-04-24 03:46 49.25576 158.43241 35766 ft 439 kts 236°
2026-04-24 03:46 49.21838 158.35849 35789 ft 439 kts 236°
2026-04-24 03:47 49.18093 158.28464 35791 ft 439 kts 236°
2026-04-24 03:47 49.14353 158.21110 35792 ft 438 kts 236°
2026-04-24 03:48 49.10608 158.13766 35793 ft 438 kts 236°
2026-04-24 03:48 49.06864 158.06445 35794 ft 437 kts 236°
2026-04-24 03:49 49.03121 157.99147 35795 ft 436 kts 236°
2026-04-24 03:49 48.99375 157.91861 35797 ft 437 kts 235°
2026-04-24 03:50 48.95616 157.84569 35799 ft 436 kts 236°
2026-04-24 03:50 48.91874 157.77331 35799 ft 435 kts 235°
2026-04-24 03:51 48.88125 157.70100 35801 ft 435 kts 235°
2026-04-24 03:51 48.84381 157.62898 35802 ft 434 kts 235°
2026-04-24 03:52 48.80631 157.55703 35803 ft 434 kts 235°
2026-04-24 03:52 48.76885 157.48533 35804 ft 434 kts 235°
2026-04-24 03:53 48.73126 157.41361 35806 ft 434 kts 235°
2026-04-24 03:53 48.69376 157.34223 35807 ft 433 kts 235°
2026-04-24 03:54 48.65611 157.27076 35809 ft 434 kts 235°
2026-04-24 03:54 48.62479 157.21146 35811 ft 434 kts 235°
2026-04-24 03:55 48.58706 157.14020 35810 ft 434 kts 235°
2026-04-24 03:55 48.54930 157.06904 35813 ft 434 kts 235°
2026-04-24 03:56 48.51152 156.99805 35814 ft 434 kts 235°
2026-04-24 03:56 48.47372 156.92721 35815 ft 434 kts 234°
2026-04-24 03:57 48.43589 156.85651 35817 ft 434 kts 234°
2026-04-24 03:57 48.39803 156.78593 35818 ft 432 kts 234°
2026-04-24 03:58 48.36025 156.71569 35819 ft 432 kts 234°
2026-04-24 03:58 48.32238 156.64546 35821 ft 432 kts 234°
2026-04-24 03:59 48.28445 156.57530 35823 ft 432 kts 234°
2026-04-24 03:59 48.24654 156.50538 35824 ft 431 kts 234°
2026-04-24 04:00 48.20865 156.43567 35825 ft 431 kts 234°
2026-04-24 04:00 48.17070 156.36602 35827 ft 431 kts 234°
2026-04-24 04:01 48.13275 156.29655 35829 ft 431 kts 234°
2026-04-24 04:01 48.09481 156.22727 35830 ft 430 kts 234°
2026-04-24 04:02 48.05693 156.15829 35832 ft 429 kts 234°
2026-04-24 04:02 48.01894 156.08928 35833 ft 430 kts 234°
2026-04-24 04:03 47.98096 156.02048 35835 ft 430 kts 234°
2026-04-24 04:03 47.94291 155.95171 35837 ft 430 kts 234°
2026-04-24 04:04 47.90484 155.88309 35838 ft 430 kts 234°
2026-04-24 04:04 47.86671 155.81452 35840 ft 429 kts 234°
2026-04-24 04:05 47.82864 155.74626 35842 ft 429 kts 234°
2026-04-24 04:05 47.79053 155.67808 35843 ft 428 kts 234°
2026-04-24 04:06 47.75248 155.61017 35845 ft 427 kts 233°
2026-04-24 04:06 47.71446 155.54251 35847 ft 426 kts 233°
2026-04-24 04:07 47.67648 155.47508 35848 ft 425 kts 233°
2026-04-24 04:07 47.63855 155.40790 35849 ft 425 kts 233°
2026-04-24 04:08 47.60058 155.34082 35875 ft 424 kts 233°
2026-04-24 04:08 47.56271 155.27408 35906 ft 423 kts 233°
2026-04-24 04:09 47.52485 155.20751 35908 ft 422 kts 233°
2026-04-24 04:09 47.48709 155.14130 35913 ft 421 kts 233°
2026-04-24 04:10 47.44950 155.07553 35921 ft 421 kts 233°
2026-04-24 04:10 47.41162 155.00943 35924 ft 421 kts 233°
2026-04-24 04:11 47.35484 154.91064 35927 ft 421 kts 233°
2026-04-24 04:11 47.31692 154.84488 35930 ft 421 kts 233°
2026-04-24 04:12 47.27901 154.77927 35932 ft 420 kts 233°
2026-04-24 04:12 47.24113 154.71389 35934 ft 419 kts 233°
2026-04-24 04:13 47.20325 154.64866 35937 ft 419 kts 233°
2026-04-24 04:13 47.16537 154.58358 35939 ft 419 kts 233°
2026-04-24 04:14 47.12749 154.51866 35941 ft 418 kts 232°
2026-04-24 04:14 47.08956 154.45381 35944 ft 418 kts 232°
2026-04-24 04:15 47.05169 154.38923 35946 ft 417 kts 232°
2026-04-24 04:15 47.01381 154.32477 35949 ft 417 kts 232°
2026-04-24 04:16 46.97599 154.26057 35950 ft 416 kts 232°
2026-04-24 04:16 46.93850 154.19707 35953 ft 414 kts 232°
2026-04-24 04:17 46.90079 154.13336 35955 ft 413 kts 232°
2026-04-24 04:17 46.86319 154.06997 35957 ft 412 kts 232°
2026-04-24 04:18 46.82566 154.00686 35959 ft 411 kts 232°
2026-04-24 04:18 46.78806 153.94377 35961 ft 413 kts 232°
2026-04-24 04:19 46.75030 153.88056 35964 ft 413 kts 232°
2026-04-24 04:19 46.71241 153.81728 35965 ft 411 kts 232°
2026-04-24 04:20 46.67508 153.75507 35968 ft 410 kts 232°
2026-04-24 04:20 46.63750 153.69260 35969 ft 410 kts 232°
2026-04-24 04:21 46.59991 153.63026 35971 ft 410 kts 232°
2026-04-24 04:21 46.56230 153.56801 35973 ft 410 kts 232°
2026-04-24 04:22 46.52463 153.50581 35975 ft 410 kts 232°
2026-04-24 04:22 46.48693 153.44370 35977 ft 410 kts 232°
2026-04-24 04:23 46.44920 153.38168 35979 ft 410 kts 232°
2026-04-24 04:23 46.41163 153.31951 35981 ft 410 kts 232°
2026-04-24 04:24 46.37390 153.25750 35983 ft 411 kts 231°
2026-04-24 04:24 46.33593 153.19571 35984 ft 411 kts 231°
2026-04-24 04:25 46.29784 153.13391 35986 ft 412 kts 231°
2026-04-24 04:25 46.25969 153.07212 35988 ft 412 kts 231°
2026-04-24 04:26 46.22155 153.01039 35990 ft 412 kts 231°
2026-04-24 04:26 46.18316 152.94895 35991 ft 413 kts 231°
2026-04-24 04:27 46.14450 152.88766 35992 ft 413 kts 230°
2026-04-24 04:27 46.10585 152.82656 35994 ft 413 kts 230°
2026-04-24 04:28 46.06708 152.76540 35996 ft 413 kts 230°
2026-04-24 04:28 46.02833 152.70440 35997 ft 413 kts 230°
2026-04-24 04:29 45.98954 152.64349 36002 ft 410 kts 230°
2026-04-24 04:29 45.95176 152.58313 35999 ft 404 kts 231°
2026-04-24 04:30 45.91405 152.52323 36001 ft 405 kts 231°
2026-04-24 04:30 45.87606 152.46330 36003 ft 406 kts 231°
2026-04-24 04:31 45.83796 152.40347 36004 ft 407 kts 230°
2026-04-24 04:31 45.79964 152.34349 36005 ft 408 kts 230°
2026-04-24 04:32 45.76127 152.28361 36007 ft 409 kts 230°
2026-04-24 04:32 45.72277 152.22366 36008 ft 409 kts 230°
2026-04-24 04:33 45.68421 152.16376 36009 ft 409 kts 230°
2026-04-24 04:33 45.64563 152.10395 36010 ft 409 kts 230°
2026-04-24 04:34 45.60706 152.04430 36012 ft 409 kts 230°
2026-04-24 04:34 45.56849 151.98477 36011 ft 408 kts 230°
2026-04-24 04:35 45.52986 151.92529 36013 ft 409 kts 230°
2026-04-24 04:35 45.49121 151.86591 36015 ft 409 kts 230°
2026-04-24 04:36 45.45254 151.80660 36016 ft 407 kts 230°
2026-04-24 04:36 45.42052 151.75761 36016 ft 407 kts 230°
2026-04-24 04:37 45.37572 151.68921 36017 ft 406 kts 230°
2026-04-24 04:37 45.33724 151.63058 36018 ft 405 kts 230°
2026-04-24 04:38 45.30504 151.58162 36018 ft 405 kts 230°
2026-04-24 04:38 45.26653 151.52320 36019 ft 404 kts 230°
2026-04-24 04:39 45.22814 151.46507 36020 ft 403 kts 230°
2026-04-24 04:39 45.18978 151.40710 36012 ft 403 kts 230°
2026-04-24 04:40 45.15146 151.34932 36012 ft 402 kts 230°
2026-04-24 04:40 45.11314 151.29166 36013 ft 402 kts 230°
2026-04-24 04:41 45.07481 151.23411 36013 ft 401 kts 230°
2026-04-24 04:41 45.03658 151.17683 36014 ft 401 kts 230°
2026-04-24 04:42 44.99831 151.11960 36015 ft 401 kts 230°
2026-04-24 04:42 44.95970 151.06199 36015 ft 401 kts 230°
2026-04-24 04:43 44.92133 151.00486 36015 ft 401 kts 229°
2026-04-24 04:43 44.88323 150.94824 36016 ft 400 kts 229°
2026-04-24 04:44 44.84492 150.89144 36017 ft 400 kts 229°
2026-04-24 04:44 44.80657 150.83469 36017 ft 400 kts 229°
2026-04-24 04:45 44.76817 150.77798 36017 ft 400 kts 229°
2026-04-24 04:45 44.72976 150.72138 36018 ft 399 kts 229°
2026-04-24 04:46 44.69134 150.66488 36018 ft 399 kts 229°
2026-04-24 04:46 44.65278 150.60828 36018 ft 399 kts 230°
2026-04-24 04:47 44.61442 150.55209 36019 ft 398 kts 230°
2026-04-24 04:47 44.57629 150.49636 36019 ft 398 kts 229°
2026-04-24 04:48 44.53799 150.44048 36019 ft 397 kts 229°
2026-04-24 04:48 44.49963 150.38465 36015 ft 397 kts 229°
2026-04-24 04:49 44.46133 150.32900 36014 ft 396 kts 229°
2026-04-24 04:49 44.42282 150.27316 36014 ft 395 kts 229°
2026-04-24 04:50 44.38456 150.21780 36015 ft 395 kts 229°
2026-04-24 04:50 44.34636 150.16263 36016 ft 395 kts 229°
2026-04-24 04:51 44.30829 150.10776 36016 ft 395 kts 229°
2026-04-24 04:51 44.27003 150.05273 36016 ft 394 kts 229°
2026-04-24 04:52 44.23184 149.99791 36017 ft 394 kts 229°
2026-04-24 04:52 44.19354 149.94304 36017 ft 394 kts 229°
2026-04-24 04:53 44.15526 149.88830 36017 ft 395 kts 229°
2026-04-24 04:53 44.11693 149.83362 36018 ft 395 kts 229°
2026-04-24 04:54 44.07857 149.77898 36018 ft 395 kts 229°
2026-04-24 04:54 44.04019 149.72442 36018 ft 395 kts 229°
2026-04-24 04:55 44.00172 149.66986 36011 ft 396 kts 229°
2026-04-24 04:55 43.96328 149.61543 36003 ft 394 kts 229°
2026-04-24 04:56 43.92493 149.56124 36004 ft 393 kts 229°
2026-04-24 04:56 43.88657 149.50715 36005 ft 394 kts 229°
2026-04-24 04:57 43.84818 149.45311 36005 ft 394 kts 229°
2026-04-24 04:57 43.80974 149.39912 36005 ft 394 kts 229°
2026-04-24 04:58 43.77127 149.34518 36006 ft 394 kts 229°
2026-04-24 04:58 43.73277 149.29131 36006 ft 394 kts 229°
2026-04-24 04:59 43.69419 149.23744 36007 ft 394 kts 229°
2026-04-24 04:59 43.65561 149.18366 36007 ft 394 kts 229°
2026-04-24 05:00 43.61693 149.12984 35985 ft 395 kts 229°
2026-04-24 05:00 43.57846 149.07643 35984 ft 395 kts 229°
2026-04-24 05:01 43.53964 149.02263 35984 ft 395 kts 229°
2026-04-24 05:01 43.50085 148.96898 35984 ft 395 kts 229°
2026-04-24 05:02 43.46197 148.91530 35985 ft 396 kts 229°
2026-04-24 05:02 43.42312 148.86177 35985 ft 396 kts 229°
2026-04-24 05:03 43.38417 148.80821 35986 ft 396 kts 229°
2026-04-24 05:03 43.34525 148.75480 35985 ft 396 kts 229°
2026-04-24 05:04 43.30613 148.70121 35986 ft 397 kts 229°
2026-04-24 05:04 43.26704 148.64777 35986 ft 397 kts 229°
2026-04-24 05:05 43.22789 148.59434 35987 ft 397 kts 229°
2026-04-24 05:05 43.18874 148.54102 35986 ft 397 kts 229°
2026-04-24 05:06 43.14959 148.48780 35986 ft 396 kts 229°
2026-04-24 05:06 43.11048 148.43473 35987 ft 396 kts 229°
2026-04-24 05:07 43.07134 148.38173 35980 ft 396 kts 229°
2026-04-24 05:07 43.03223 148.32887 35977 ft 395 kts 229°
2026-04-24 05:08 42.99320 148.27621 35977 ft 394 kts 229°
2026-04-24 05:08 42.95421 148.22370 35978 ft 393 kts 228°
2026-04-24 05:09 42.91527 148.17137 35978 ft 393 kts 228°
2026-04-24 05:09 42.87658 148.11946 35979 ft 392 kts 228°
2026-04-24 05:10 42.83749 148.06712 35979 ft 391 kts 228°
2026-04-24 05:10 42.79896 148.01562 35991 ft 391 kts 229°
2026-04-24 05:11 42.75985 147.96344 35995 ft 398 kts 229°
2026-04-24 05:11 42.71991 147.91027 35997 ft 405 kts 229°
2026-04-24 05:12 42.67945 147.85649 35997 ft 408 kts 229°
2026-04-24 05:12 42.63889 147.80267 35996 ft 407 kts 229°
2026-04-24 05:13 42.57836 147.72200 35997 ft 406 kts 229°
2026-04-24 05:14 42.53763 147.66828 35997 ft 405 kts 228°
2026-04-24 05:14 42.49712 147.61507 35997 ft 405 kts 228°
2026-04-24 05:15 42.45685 147.56227 35997 ft 406 kts 228°
2026-04-24 05:15 42.41632 147.50918 35997 ft 406 kts 229°
2026-04-24 05:16 42.37570 147.45596 35997 ft 406 kts 229°
2026-04-24 05:16 42.33510 147.40289 35997 ft 406 kts 229°
2026-04-24 05:17 42.29439 147.34980 35998 ft 407 kts 228°
2026-04-24 05:17 42.25357 147.29664 35999 ft 407 kts 228°
2026-04-24 05:18 42.21276 147.24359 35998 ft 408 kts 229°
2026-04-24 05:18 42.17186 147.19050 35999 ft 409 kts 229°
2026-04-24 05:19 42.13103 147.13690 35999 ft 410 kts 229°
2026-04-24 05:19 42.09019 147.08333 36000 ft 410 kts 229°
2026-04-24 05:20 42.04903 147.03009 36000 ft 410 kts 228°
2026-04-24 05:20 42.01469 146.98587 36000 ft 412 kts 229°
2026-04-24 05:21 41.97341 146.93277 36001 ft 409 kts 229°
2026-04-24 05:21 41.93246 146.88018 36000 ft 407 kts 229°
2026-04-24 05:22 41.89154 146.82762 36001 ft 408 kts 229°
2026-04-24 05:22 41.85039 146.77496 36001 ft 409 kts 229°
2026-04-24 05:23 41.80918 146.72234 36001 ft 409 kts 229°
2026-04-24 05:23 41.76789 146.66974 36002 ft 410 kts 229°
2026-04-24 05:24 41.72657 146.61720 36002 ft 410 kts 229°
2026-04-24 05:24 41.68516 146.56464 36002 ft 410 kts 229°
2026-04-24 05:25 41.64379 146.51172 36003 ft 412 kts 229°
2026-04-24 05:25 41.60241 146.45870 36003 ft 412 kts 229°
2026-04-24 05:26 41.56096 146.40595 36003 ft 412 kts 229°
2026-04-24 05:26 41.51936 146.35322 36004 ft 412 kts 229°
2026-04-24 05:27 41.47779 146.30068 36005 ft 412 kts 229°
2026-04-24 05:27 41.43615 146.24815 36005 ft 412 kts 229°
2026-04-24 05:28 41.39477 146.19607 36005 ft 411 kts 229°
2026-04-24 05:28 41.35320 146.14384 36006 ft 411 kts 229°
2026-04-24 05:29 41.31160 146.09168 36006 ft 410 kts 229°
2026-04-24 05:29 41.27005 146.03968 36007 ft 410 kts 229°
2026-04-24 05:30 41.22853 145.98780 36020 ft 410 kts 229°
2026-04-24 05:30 41.18681 145.93578 36027 ft 412 kts 229°
2026-04-24 05:31 41.14506 145.88381 36028 ft 411 kts 229°
2026-04-24 05:31 41.10344 145.83210 36028 ft 410 kts 229°
2026-04-24 05:32 41.06180 145.78045 36028 ft 409 kts 229°
2026-04-24 05:32 41.02022 145.72897 36028 ft 409 kts 229°
2026-04-24 05:33 40.97865 145.67760 36028 ft 408 kts 229°
2026-04-24 05:33 40.93716 145.62642 36029 ft 408 kts 229°
2026-04-24 05:34 40.87500 145.54992 36029 ft 407 kts 229°
2026-04-24 05:34 40.83362 145.49910 36029 ft 406 kts 229°
2026-04-24 05:35 40.79225 145.44839 36029 ft 406 kts 229°
2026-04-24 05:35 40.75083 145.39770 36007 ft 406 kts 229°
2026-04-24 05:36 40.70953 145.34725 35990 ft 405 kts 229°
2026-04-24 05:36 40.66821 145.29686 35989 ft 405 kts 229°
2026-04-24 05:37 40.62698 145.24626 35987 ft 405 kts 229°
2026-04-24 05:37 40.58564 145.19596 35987 ft 405 kts 229°
2026-04-24 05:38 40.54415 145.14576 35986 ft 405 kts 229°
2026-04-24 05:38 40.50264 145.09564 35986 ft 405 kts 229°
2026-04-24 05:39 40.46118 145.04565 35984 ft 404 kts 229°
2026-04-24 05:39 40.42137 144.99399 35987 ft 400 kts 237°
2026-04-24 05:40 40.38991 144.93420 35986 ft 396 kts 242°
2026-04-24 05:40 40.36165 144.87280 35987 ft 395 kts 242°
2026-04-24 05:41 40.33320 144.81118 35987 ft 395 kts 242°
2026-04-24 05:41 40.30451 144.74970 35985 ft 395 kts 242°
2026-04-24 05:42 40.27578 144.68852 35985 ft 394 kts 242°
2026-04-24 05:42 40.24677 144.62697 35984 ft 395 kts 242°
2026-04-24 05:43 40.21830 144.56567 35983 ft 394 kts 242°
2026-04-24 05:43 40.18981 144.50454 35972 ft 394 kts 242°
2026-04-24 05:44 40.16117 144.44355 35960 ft 393 kts 242°
2026-04-24 05:44 40.13249 144.38276 35959 ft 393 kts 242°
2026-04-24 05:45 40.10377 144.32207 35959 ft 392 kts 242°
2026-04-24 05:45 40.07526 144.26198 35959 ft 392 kts 242°
2026-04-24 05:46 40.04645 144.20139 35957 ft 392 kts 242°
2026-04-24 05:46 40.01775 144.14113 35967 ft 391 kts 242°
2026-04-24 05:47 39.98902 144.08095 36001 ft 391 kts 242°
2026-04-24 05:47 39.96024 144.02077 36003 ft 391 kts 242°
2026-04-24 05:48 39.93140 143.96059 36002 ft 391 kts 242°
2026-04-24 05:48 39.90257 143.90053 36002 ft 391 kts 242°
2026-04-24 05:49 39.87370 143.84051 36002 ft 391 kts 242°
2026-04-24 05:49 39.84492 143.78080 36001 ft 391 kts 242°
2026-04-24 05:50 39.81581 143.72051 36000 ft 391 kts 242°
2026-04-24 05:50 39.78686 143.66067 35999 ft 391 kts 242°
2026-04-24 05:51 39.75786 143.60085 35998 ft 391 kts 242°
2026-04-24 05:51 39.72882 143.54105 35997 ft 391 kts 242°
2026-04-24 05:52 39.69979 143.48139 35996 ft 391 kts 242°
2026-04-24 05:52 39.67070 143.42172 35996 ft 391 kts 242°
2026-04-24 05:53 39.64153 143.36198 35995 ft 391 kts 242°
2026-04-24 05:53 39.61236 143.30237 35994 ft 391 kts 242°
2026-04-24 05:54 39.58319 143.24286 35993 ft 391 kts 242°
2026-04-24 05:54 39.55395 143.18332 35986 ft 391 kts 242°
2026-04-24 05:55 39.52470 143.12389 35984 ft 391 kts 242°
2026-04-24 05:55 39.49544 143.06453 35983 ft 391 kts 242°
2026-04-24 05:56 39.46613 143.00519 35981 ft 391 kts 242°
2026-04-24 05:56 39.43689 142.94610 35979 ft 387 kts 242°
2026-04-24 05:57 39.40800 142.88780 35958 ft 384 kts 242°
2026-04-24 05:57 39.37940 142.82951 35955 ft 385 kts 242°
2026-04-24 05:58 39.35057 142.77153 35954 ft 380 kts 241°
2026-04-24 05:58 39.32178 142.71397 35954 ft 383 kts 241°
2026-04-24 05:59 39.29275 142.65605 35954 ft 384 kts 242°
2026-04-24 05:59 39.26375 142.59826 35953 ft 384 kts 242°
2026-04-24 06:00 39.23473 142.54079 35953 ft 385 kts 239°
2026-04-24 06:00 39.20139 142.48636 35953 ft 386 kts 235°
2026-04-24 06:01 39.16633 142.43444 35953 ft 383 kts 235°
2026-04-24 06:01 39.13148 142.38270 35954 ft 383 kts 235°
2026-04-24 06:02 39.09669 142.33082 35954 ft 383 kts 235°
2026-04-24 06:02 39.06191 142.27888 35954 ft 383 kts 235°
2026-04-24 06:03 39.03300 142.23574 35955 ft 383 kts 235°
2026-04-24 06:03 38.99249 142.17490 35955 ft 383 kts 236°
2026-04-24 06:04 38.96378 142.13151 35955 ft 383 kts 236°
2026-04-24 06:04 38.92921 142.07961 35955 ft 382 kts 236°
2026-04-24 06:05 38.89457 142.02782 35956 ft 382 kts 236°
2026-04-24 06:05 38.85988 141.97612 35957 ft 382 kts 235°
2026-04-24 06:06 38.82513 141.92443 35959 ft 383 kts 235°
2026-04-24 06:07 38.75581 141.82160 35961 ft 382 kts 235°
2026-04-24 06:07 38.72708 141.76565 35967 ft 375 kts 252°
2026-04-24 06:08 38.70904 141.70325 35963 ft 372 kts 252°
2026-04-24 06:08 38.69143 141.64104 35966 ft 372 kts 251°
2026-04-24 06:09 38.67374 141.57870 35968 ft 372 kts 251°
2026-04-24 06:09 38.65605 141.51653 35969 ft 372 kts 251°
2026-04-24 06:10 38.64067 141.46259 35970 ft 372 kts 251°
2026-04-24 06:11 38.61398 141.36924 35974 ft 372 kts 251°
2026-04-24 06:11 38.59618 141.30718 35976 ft 373 kts 251°
2026-04-24 06:12 38.57818 141.24455 35998 ft 377 kts 251°
2026-04-24 06:12 38.56033 141.18117 36002 ft 379 kts 251°
2026-04-24 06:13 38.54259 141.11794 36005 ft 378 kts 251°
2026-04-24 06:13 38.52480 141.05470 36015 ft 378 kts 251°
2026-04-24 06:14 38.50696 140.99146 36017 ft 378 kts 251°
2026-04-24 06:14 38.48911 140.92836 36019 ft 378 kts 251°
2026-04-24 06:15 38.47121 140.86520 36011 ft 378 kts 251°
2026-04-24 06:15 38.45329 140.80212 36010 ft 378 kts 251°
2026-04-24 06:16 38.43534 140.73911 36009 ft 378 kts 251°
2026-04-24 06:16 38.41734 140.67607 36007 ft 378 kts 251°
2026-04-24 06:17 38.39933 140.61312 35999 ft 378 kts 251°
2026-04-24 06:17 38.38126 140.55016 35997 ft 378 kts 251°
2026-04-24 06:18 38.36330 140.48770 35995 ft 378 kts 251°
2026-04-24 06:18 38.34506 140.42439 35995 ft 378 kts 250°
2026-04-24 06:19 38.32695 140.36170 35995 ft 378 kts 250°
2026-04-24 06:19 38.30890 140.29938 35999 ft 378 kts 250°
2026-04-24 06:20 38.29069 140.23662 36002 ft 378 kts 250°
2026-04-24 06:20 38.27246 140.17397 36007 ft 377 kts 250°
2026-04-24 06:21 38.25419 140.11133 36013 ft 377 kts 250°
2026-04-24 06:21 38.23591 140.04877 36019 ft 377 kts 250°
2026-04-24 06:22 38.21745 139.98578 36027 ft 377 kts 250°
2026-04-24 06:22 38.19922 139.92367 36034 ft 377 kts 250°
2026-04-24 06:23 38.18074 139.86089 36041 ft 375 kts 250°
2026-04-24 06:23 38.16260 139.79940 36049 ft 373 kts 250°
2026-04-24 06:24 38.14433 139.73759 36048 ft 374 kts 250°
2026-04-24 06:24 38.12589 139.67537 36085 ft 374 kts 250°
2026-04-24 06:25 38.10765 139.61395 36089 ft 374 kts 250°
2026-04-24 06:25 38.08928 139.55223 36093 ft 374 kts 250°
2026-04-24 06:26 38.07090 139.49038 36097 ft 374 kts 251°
2026-04-24 06:26 38.05273 139.42859 36101 ft 374 kts 250°
2026-04-24 06:27 38.03422 139.36689 36105 ft 374 kts 250°
2026-04-24 06:27 38.01560 139.30521 36108 ft 375 kts 250°
2026-04-24 06:28 37.99691 139.24346 36111 ft 375 kts 250°
2026-04-24 06:28 37.97834 139.18215 36111 ft 371 kts 250°
2026-04-24 06:29 37.95995 139.12147 36112 ft 369 kts 250°
2026-04-24 06:29 37.94016 139.06137 36114 ft 370 kts 248°
2026-04-24 06:30 37.91908 139.00194 36111 ft 370 kts 248°
2026-04-24 06:30 37.89820 138.94244 36110 ft 370 kts 248°
2026-04-24 06:31 37.87738 138.88292 36109 ft 370 kts 248°
2026-04-24 06:31 37.85646 138.82305 36107 ft 373 kts 248°
2026-04-24 06:32 37.83565 138.76295 36104 ft 373 kts 249°
2026-04-24 06:32 37.81511 138.70261 36104 ft 373 kts 248°
2026-04-24 06:33 37.79415 138.64257 36102 ft 373 kts 248°
2026-04-24 06:33 37.77308 138.58269 36100 ft 373 kts 248°
2026-04-24 06:34 37.75194 138.52277 36097 ft 373 kts 248°
2026-04-24 06:34 37.73076 138.46279 36096 ft 374 kts 248°
2026-04-24 06:35 37.70958 138.40282 36094 ft 374 kts 248°
2026-04-24 06:35 37.68836 138.34288 36092 ft 374 kts 248°
2026-04-24 06:36 37.66706 138.28299 36090 ft 374 kts 248°
2026-04-24 06:36 37.64585 138.22347 36094 ft 374 kts 248°
2026-04-24 06:37 37.62436 138.16332 36093 ft 374 kts 248°
2026-04-24 06:37 37.60311 138.10395 36091 ft 374 kts 248°
2026-04-24 06:38 37.58168 138.04422 36089 ft 374 kts 248°
2026-04-24 06:38 37.56043 137.98441 36087 ft 374 kts 248°
2026-04-24 06:39 37.53929 137.92444 36086 ft 374 kts 248°
2026-04-24 06:39 37.51799 137.86460 36077 ft 374 kts 248°
2026-04-24 06:40 37.49662 137.80495 36075 ft 374 kts 248°
2026-04-24 06:40 37.47520 137.74535 36075 ft 373 kts 248°
2026-04-24 06:41 37.45377 137.68589 36075 ft 373 kts 248°
2026-04-24 06:41 37.43230 137.62646 36075 ft 373 kts 248°
2026-04-24 06:42 37.41081 137.56708 36076 ft 373 kts 248°
2026-04-24 06:42 37.38932 137.50783 36076 ft 372 kts 248°
2026-04-24 06:43 37.36781 137.44866 36078 ft 372 kts 248°
2026-04-24 06:43 37.34629 137.38952 36078 ft 371 kts 247°
2026-04-24 06:44 37.32479 137.33061 36079 ft 371 kts 247°
2026-04-24 06:44 37.30325 137.27168 36080 ft 371 kts 247°
2026-04-24 06:45 37.28168 137.21277 36078 ft 371 kts 247°
2026-04-24 06:45 37.26008 137.15391 36079 ft 371 kts 247°
2026-04-24 06:46 37.23845 137.09505 36080 ft 371 kts 247°
2026-04-24 06:46 37.22071 137.04609 36081 ft 371 kts 247°
2026-04-24 06:47 37.19906 136.98721 36081 ft 371 kts 247°
2026-04-24 06:47 37.17728 136.92849 36080 ft 371 kts 247°
2026-04-24 06:48 37.15547 136.86987 36079 ft 371 kts 247°
2026-04-24 06:48 37.13365 136.81130 36077 ft 370 kts 247°
2026-04-24 06:49 37.11171 136.75244 36075 ft 376 kts 247°
2026-04-24 06:49 37.08950 136.69291 36071 ft 378 kts 247°
2026-04-24 06:50 37.06716 136.63341 36068 ft 377 kts 247°
2026-04-24 06:50 37.04484 136.57412 36065 ft 377 kts 247°
2026-04-24 06:51 37.02242 136.51473 36062 ft 377 kts 247°
2026-04-24 06:51 36.99999 136.45541 36059 ft 377 kts 247°
2026-04-24 06:52 36.97753 136.39615 36058 ft 377 kts 247°
2026-04-24 06:52 36.95507 136.33697 36054 ft 376 kts 246°
2026-04-24 06:53 36.93304 136.27773 36050 ft 376 kts 247°
2026-04-24 06:53 36.91087 136.21858 36048 ft 376 kts 246°
2026-04-24 06:54 36.88875 136.16001 36046 ft 375 kts 246°
2026-04-24 06:54 36.86642 136.10114 36044 ft 375 kts 246°
2026-04-24 06:55 36.84388 136.04189 36043 ft 375 kts 246°
2026-04-24 06:55 36.82149 135.98316 36039 ft 375 kts 246°
2026-04-24 06:56 36.79894 135.92415 36042 ft 377 kts 246°
2026-04-24 06:56 36.77631 135.86504 36041 ft 377 kts 246°
2026-04-24 06:57 36.75384 135.80644 36040 ft 377 kts 246°
2026-04-24 06:57 36.73118 135.74749 36040 ft 377 kts 246°
2026-04-24 06:58 36.70848 135.68853 36041 ft 377 kts 246°
2026-04-24 06:58 36.68575 135.62961 36041 ft 377 kts 246°
2026-04-24 06:59 36.66299 135.57072 36042 ft 377 kts 246°
2026-04-24 06:59 36.64021 135.51189 36042 ft 377 kts 246°
2026-04-24 07:00 36.61738 135.45304 36043 ft 377 kts 246°
2026-04-24 07:00 36.59454 135.39426 36043 ft 377 kts 246°
2026-04-24 07:01 36.57164 135.33546 36044 ft 378 kts 246°
2026-04-24 07:01 36.54869 135.27662 36045 ft 378 kts 246°
2026-04-24 07:02 36.52568 135.21775 36045 ft 378 kts 246°
2026-04-24 07:02 36.50267 135.15897 36046 ft 379 kts 246°
2026-04-24 07:03 36.47956 135.10005 36047 ft 379 kts 246°
2026-04-24 07:03 36.45642 135.04116 36047 ft 379 kts 246°
2026-04-24 07:04 36.43324 134.98227 36048 ft 379 kts 246°
2026-04-24 07:04 36.41002 134.92340 36049 ft 380 kts 245°
2026-04-24 07:05 36.38676 134.86451 36050 ft 380 kts 246°
2026-04-24 07:05 36.36373 134.80554 36036 ft 380 kts 246°
2026-04-24 07:06 36.34055 134.74707 36048 ft 380 kts 245°
2026-04-24 07:06 36.31699 134.68799 36049 ft 380 kts 245°
2026-04-24 07:07 36.29368 134.62966 36049 ft 380 kts 245°
2026-04-24 07:07 36.25842 134.54157 36050 ft 381 kts 245°
2026-04-24 07:08 36.23425 134.48316 36042 ft 380 kts 248°
2026-04-24 07:08 36.22634 134.45208 36047 ft 380 kts 259°
2026-04-24 07:08 36.22297 134.41961 36046 ft 381 kts 261°
2026-04-24 07:09 36.21689 134.35368 36050 ft 389 kts 261°
2026-04-24 07:09 36.21071 134.28682 36051 ft 390 kts 261°
2026-04-24 07:10 36.20452 134.22019 36051 ft 390 kts 261°
2026-04-24 07:10 36.19827 134.15349 36053 ft 389 kts 261°
2026-04-24 07:11 36.19200 134.08698 36063 ft 391 kts 261°
2026-04-24 07:11 36.18561 134.01954 36078 ft 399 kts 261°
2026-04-24 07:12 36.17906 133.95093 36079 ft 401 kts 261°
2026-04-24 07:12 36.17247 133.88232 36079 ft 401 kts 261°
2026-04-24 07:13 36.16584 133.81368 36079 ft 401 kts 261°
2026-04-24 07:13 36.15923 133.74561 36079 ft 401 kts 261°
2026-04-24 07:14 36.15253 133.67707 36080 ft 402 kts 260°
2026-04-24 07:14 36.14577 133.60835 36080 ft 402 kts 260°
2026-04-24 07:15 36.13897 133.53959 36080 ft 403 kts 260°
2026-04-24 07:15 36.13211 133.47073 36080 ft 404 kts 260°
2026-04-24 07:16 36.12521 133.40178 36081 ft 405 kts 260°
2026-04-24 07:16 36.11824 133.33263 36080 ft 405 kts 260°
2026-04-24 07:17 36.11122 133.26333 36081 ft 406 kts 260°
2026-04-24 07:17 36.10415 133.19392 36070 ft 407 kts 260°
2026-04-24 07:18 36.09703 133.12443 36069 ft 408 kts 260°
2026-04-24 07:18 36.08985 133.05483 36068 ft 409 kts 260°
2026-04-24 07:19 36.08262 132.98511 36068 ft 409 kts 260°
2026-04-24 07:19 36.07534 132.91534 36068 ft 409 kts 260°
2026-04-24 07:20 36.06802 132.84552 36061 ft 410 kts 260°
2026-04-24 07:20 36.06066 132.77578 36046 ft 409 kts 260°
2026-04-24 07:21 36.05325 132.70591 36046 ft 409 kts 260°
2026-04-24 07:21 36.04580 132.63614 36046 ft 409 kts 260°
2026-04-24 07:22 36.03838 132.56691 36045 ft 410 kts 260°
2026-04-24 07:22 36.03084 132.49711 36044 ft 410 kts 260°
2026-04-24 07:23 36.02323 132.42696 36044 ft 410 kts 260°
2026-04-24 07:23 36.01562 132.35715 36043 ft 410 kts 259°
2026-04-24 07:24 36.00796 132.28740 36042 ft 410 kts 259°
2026-04-24 07:24 36.00028 132.21776 36041 ft 409 kts 259°
2026-04-24 07:25 35.99257 132.14828 36041 ft 408 kts 259°
2026-04-24 07:25 35.98487 132.07916 36040 ft 409 kts 259°
2026-04-24 07:26 35.97707 132.00965 36039 ft 409 kts 259°
2026-04-24 07:26 35.96923 131.94007 36038 ft 409 kts 259°
2026-04-24 07:27 35.96128 131.86990 36037 ft 409 kts 259°
2026-04-24 07:27 35.95465 131.81174 36036 ft 409 kts 259°
2026-04-24 07:28 35.94540 131.73090 36031 ft 409 kts 259°
2026-04-24 07:28 35.93865 131.67228 36013 ft 408 kts 259°
2026-04-24 07:29 35.93068 131.60339 35989 ft 408 kts 259°
2026-04-24 07:29 35.92263 131.53411 35989 ft 408 kts 259°
2026-04-24 07:30 35.91452 131.46476 35990 ft 408 kts 259°
2026-04-24 07:30 35.90639 131.39556 36004 ft 408 kts 259°
2026-04-24 07:31 35.89820 131.32617 36005 ft 408 kts 259°
2026-04-24 07:31 35.88997 131.25687 36006 ft 409 kts 259°
2026-04-24 07:32 35.88168 131.18741 36008 ft 410 kts 259°
2026-04-24 07:32 35.87334 131.11792 36009 ft 410 kts 259°
2026-04-24 07:33 35.86484 131.04843 36010 ft 411 kts 259°
2026-04-24 07:33 35.85908 130.97827 36021 ft 417 kts 272°
2026-04-24 07:34 35.86645 130.94335 36004 ft 427 kts 284°
2026-04-24 07:34 35.87746 130.90904 36026 ft 432 kts 285°
2026-04-24 07:34 35.90181 130.84060 36035 ft 439 kts 286°
2026-04-24 07:35 35.92723 130.77148 36015 ft 440 kts 286°
2026-04-24 07:35 35.95229 130.70315 36014 ft 441 kts 286°
2026-04-24 07:36 35.97759 130.63396 36015 ft 443 kts 286°
2026-04-24 07:36 36.00296 130.56439 36015 ft 444 kts 287°
2026-04-24 07:37 36.02842 130.49440 36016 ft 448 kts 287°
2026-04-24 07:37 36.05395 130.42409 36017 ft 449 kts 287°
2026-04-24 07:38 36.07945 130.35369 36045 ft 449 kts 287°
2026-04-24 07:38 36.10494 130.28315 36057 ft 449 kts 287°
2026-04-24 07:39 36.13039 130.21257 36077 ft 449 kts 287°
2026-04-24 07:39 36.15576 130.14205 36084 ft 449 kts 287°
2026-04-24 07:40 36.18111 130.07142 36080 ft 449 kts 287°
2026-04-24 07:40 36.20642 130.00073 36061 ft 449 kts 287°
2026-04-24 07:41 36.23172 129.92994 36062 ft 450 kts 287°
2026-04-24 07:41 36.25698 129.85906 36063 ft 450 kts 287°
2026-04-24 07:42 36.28222 129.78811 36065 ft 450 kts 287°
2026-04-24 07:42 36.30743 129.71705 36067 ft 451 kts 287°
2026-04-24 07:43 36.33265 129.64580 36067 ft 451 kts 287°
2026-04-24 07:43 36.35783 129.57450 36068 ft 451 kts 287°
2026-04-24 07:44 36.38295 129.50322 36069 ft 451 kts 287°
2026-04-24 07:44 36.40797 129.43205 36067 ft 442 kts 287°
2026-04-24 07:45 36.43209 129.36329 36084 ft 430 kts 287°
2026-04-24 07:45 36.44378 129.32988 35960 ft 424 kts 287°
2026-04-24 07:45 36.45554 129.29626 35543 ft 425 kts 287°
2026-04-24 07:46 36.46728 129.26265 35216 ft 424 kts 287°
2026-04-24 07:46 36.47897 129.22918 34928 ft 422 kts 287°
2026-04-24 07:46 36.49057 129.19589 34661 ft 419 kts 287°
2026-04-24 07:46 36.50215 129.16265 34363 ft 418 kts 287°
2026-04-24 07:47 36.51364 129.12961 34099 ft 416 kts 287°
2026-04-24 07:47 36.52512 129.09655 33785 ft 416 kts 287°
2026-04-24 07:47 36.53668 129.06325 33292 ft 423 kts 287°
2026-04-24 07:47 36.54835 129.02960 32866 ft 426 kts 288°
2026-04-24 07:48 36.56014 128.99556 32459 ft 430 kts 288°
2026-04-24 07:48 36.57198 128.96132 32165 ft 433 kts 288°
2026-04-24 07:48 36.58390 128.92683 31971 ft 435 kts 288°
2026-04-24 07:48 36.59587 128.89215 31786 ft 436 kts 288°
2026-04-24 07:49 36.60778 128.85761 31662 ft 435 kts 288°
2026-04-24 07:49 36.61972 128.82295 31370 ft 433 kts 288°
2026-04-24 07:49 36.63155 128.78854 31021 ft 433 kts 289°
2026-04-24 07:49 36.64340 128.75405 30630 ft 433 kts 289°
2026-04-24 07:50 36.65521 128.71964 30319 ft 432 kts 289°
2026-04-24 07:50 36.66699 128.68526 30009 ft 431 kts 289°
2026-04-24 07:50 36.67877 128.65088 29705 ft 431 kts 289°
2026-04-24 07:50 36.69047 128.61668 29441 ft 429 kts 289°
2026-04-24 07:51 36.70215 128.58248 29147 ft 428 kts 289°
2026-04-24 07:51 36.71377 128.54843 28869 ft 427 kts 289°
2026-04-24 07:51 36.72538 128.51439 28603 ft 425 kts 289°
2026-04-24 07:51 36.73681 128.48082 28290 ft 416 kts 289°
2026-04-24 07:52 36.74796 128.44803 28043 ft 405 kts 289°
2026-04-24 07:52 36.75867 128.41650 27746 ft 396 kts 289°
2026-04-24 07:52 36.76936 128.38501 27265 ft 392 kts 290°
2026-04-24 07:52 36.77998 128.35368 26819 ft 392 kts 290°
2026-04-24 07:53 36.79027 128.32331 26453 ft 392 kts 290°
2026-04-24 07:53 36.80084 128.29206 26161 ft 389 kts 290°
2026-04-24 07:53 36.81131 128.26108 25875 ft 387 kts 290°
2026-04-24 07:53 36.82176 128.23013 25543 ft 386 kts 290°
2026-04-24 07:54 36.83220 128.19921 25179 ft 386 kts 290°
2026-04-24 07:54 36.84260 128.16834 24877 ft 385 kts 290°
2026-04-24 07:54 36.85294 128.13762 24586 ft 383 kts 290°
2026-04-24 07:54 36.86322 128.10706 24281 ft 382 kts 290°
2026-04-24 07:55 36.87351 128.07642 23994 ft 381 kts 291°
2026-04-24 07:55 36.88375 128.04594 23676 ft 381 kts 291°
2026-04-24 07:55 36.89398 128.01546 23387 ft 380 kts 291°
2026-04-24 07:55 36.90449 127.98514 23021 ft 380 kts 292°
2026-04-24 07:56 36.91494 127.95473 22586 ft 380 kts 291°
2026-04-24 07:56 36.92517 127.92448 22146 ft 376 kts 291°
2026-04-24 07:56 36.93523 127.89449 21708 ft 374 kts 291°
2026-04-24 07:56 36.94523 127.86454 21271 ft 373 kts 291°
2026-04-24 07:57 36.95517 127.83469 20836 ft 372 kts 291°
2026-04-24 07:57 36.96513 127.80477 20402 ft 370 kts 292°
2026-04-24 07:57 36.97497 127.77517 19973 ft 367 kts 292°
2026-04-24 07:57 36.98476 127.74571 19544 ft 366 kts 292°
2026-04-24 07:58 36.99450 127.71643 19118 ft 364 kts 292°
2026-04-24 07:58 37.00420 127.68731 18692 ft 362 kts 292°
2026-04-24 07:58 37.01393 127.65828 18272 ft 361 kts 293°
2026-04-24 07:58 37.02527 127.63039 17954 ft 358 kts 300°
2026-04-24 07:59 37.03867 127.60420 17741 ft 359 kts 304°
2026-04-24 07:59 37.05323 127.57880 17532 ft 358 kts 306°
2026-04-24 07:59 37.06786 127.55367 17326 ft 357 kts 305°
2026-04-24 07:59 37.08201 127.52862 17126 ft 356 kts 305°
2026-04-24 08:00 37.09610 127.50325 16923 ft 355 kts 305°
2026-04-24 08:00 37.11025 127.47772 16721 ft 356 kts 305°
2026-04-24 08:00 37.12451 127.45198 16517 ft 354 kts 305°
2026-04-24 08:00 37.13833 127.42704 16321 ft 353 kts 305°
2026-04-24 08:01 37.15251 127.40165 16120 ft 351 kts 305°
2026-04-24 08:01 37.16648 127.37650 15922 ft 350 kts 305°
2026-04-24 08:01 37.18033 127.35153 15619 ft 349 kts 305°
2026-04-24 08:01 37.19399 127.32690 15297 ft 347 kts 305°
2026-04-24 08:02 37.20774 127.30204 14981 ft 346 kts 306°
2026-04-24 08:02 37.21968 127.27610 14629 ft 344 kts 291°
2026-04-24 08:02 37.22409 127.24689 14141 ft 342 kts 274°
2026-04-24 08:02 37.22259 127.21704 13578 ft 344 kts 263°
2026-04-24 08:03 37.21926 127.18744 13108 ft 341 kts 263°
2026-04-24 08:03 37.21566 127.15824 12579 ft 336 kts 262°
2026-04-24 08:03 37.21208 127.12979 12198 ft 327 kts 262°
2026-04-24 08:03 37.20875 127.10191 11796 ft 319 kts 262°
2026-04-24 08:04 37.20543 127.07465 11394 ft 312 kts 262°
2026-04-24 08:04 37.20213 127.04800 10992 ft 306 kts 262°
2026-04-24 08:04 37.19883 127.02187 10591 ft 301 kts 262°
2026-04-24 08:04 37.19556 126.99612 10195 ft 297 kts 262°
2026-04-24 08:05 37.19232 126.97072 9789 ft 293 kts 262°
2026-04-24 08:05 37.18935 126.94762 9428 ft 289 kts 261°
2026-04-24 08:05 37.18619 126.92300 9160 ft 284 kts 261°
2026-04-24 08:05 37.18305 126.89863 8890 ft 281 kts 261°
2026-04-24 08:06 37.17994 126.87447 8624 ft 279 kts 261°
2026-04-24 08:06 37.17684 126.85043 8357 ft 279 kts 261°
2026-04-24 08:06 37.17377 126.82657 8105 ft 274 kts 261°
2026-04-24 08:06 37.17076 126.80322 7832 ft 267 kts 261°
2026-04-24 08:07 37.16784 126.78061 7579 ft 259 kts 261°
2026-04-24 08:07 37.16504 126.75875 7350 ft 249 kts 262°
2026-04-24 08:07 37.16560 126.73776 7098 ft 236 kts 287°
2026-04-24 08:07 37.17327 126.72108 6984 ft 217 kts 307°
2026-04-24 08:08 37.18328 126.70723 6703 ft 210 kts 315°
2026-04-24 08:08 37.19415 126.69533 6362 ft 206 kts 322°
2026-04-24 08:08 37.20594 126.68562 6091 ft 199 kts 328°
2026-04-24 08:09 37.22894 126.66611 5456 ft 200 kts 326°
2026-04-24 08:09 37.24023 126.65615 5121 ft 196 kts 326°
2026-04-24 08:09 37.24730 126.64991 4944 ft 193 kts 326°
2026-04-24 08:09 37.25827 126.64022 4683 ft 193 kts 326°
2026-04-24 08:10 37.26926 126.63050 4424 ft 193 kts 326°
2026-04-24 08:10 37.28020 126.62083 4167 ft 192 kts 326°
2026-04-24 08:10 37.29110 126.61120 3912 ft 192 kts 325°
2026-04-24 08:10 37.30200 126.60155 3658 ft 191 kts 325°
2026-04-24 08:11 37.31288 126.59193 3403 ft 191 kts 325°
2026-04-24 08:11 37.32372 126.58233 3168 ft 190 kts 325°
2026-04-24 08:11 37.33448 126.57281 2927 ft 189 kts 325°
2026-04-24 08:11 37.34520 126.56331 2658 ft 188 kts 325°
2026-04-24 08:12 37.35574 126.55397 2406 ft 187 kts 324°
2026-04-24 08:12 37.36619 126.54471 2151 ft 177 kts 324°
2026-04-24 08:12 37.37582 126.53617 1927 ft 162 kts 324°
2026-04-24 08:12 37.38196 126.53073 1804 ft 158 kts 324°
2026-04-24 08:13 37.39091 126.52277 1613 ft 159 kts 323°
2026-04-24 08:13 37.39985 126.51476 1460 ft 157 kts 324°
2026-04-24 08:13 37.40879 126.50710 1217 ft 155 kts 323°
2026-04-24 08:13 37.41744 126.49944 995 ft 149 kts 322°
2026-04-24 08:14 37.42581 126.49193 799 ft 149 kts 322°
2026-04-24 08:14 37.43430 126.48432 593 ft 150 kts 322°
2026-04-24 08:14 37.44283 126.47662 385 ft 151 kts 322°
2026-04-24 08:14 37.45149 126.46911 174 ft 152 kts 322°
2026-04-24 08:15 37.45996 126.46149 41 ft 144 kts 322°
2026-04-24 08:15 37.46702 126.45514 37 ft 96 kts 324°
2026-04-24 08:15 37.47038 126.45217 37 ft 38 kts 324°
2026-04-24 08:15 37.47193 126.45058 37 ft 26 kts 300°
2026-04-24 08:16 37.47260 126.44869 37 ft 20 kts 295°
2026-04-24 08:16 37.47318 126.44716 37 ft 19 kts 302°
2026-04-24 08:16 37.47417 126.44614 37 ft 18 kts 324°
2026-04-24 08:16 37.47517 126.44526 37 ft 17 kts 325°
2026-04-24 08:17 37.47612 126.44443 37 ft 16 kts 325°
2026-04-24 08:17 37.47701 126.44364 37 ft 15 kts 324°
2026-04-24 08:17 37.47776 126.44297 37 ft 9 kts 323°
2026-04-24 08:17 37.47782 126.44224 37 ft 9 kts 240°
2026-04-24 08:18 37.47745 126.44159 37 ft 11 kts 233°
2026-04-24 08:18 37.47680 126.44049 37 ft 16 kts 234°
2026-04-24 08:18 37.47626 126.43955 36 ft 11 kts 234°
2026-04-24 08:18 37.47568 126.43912 36 ft 10 kts 160°
2026-04-24 08:19 37.47508 126.43960 36 ft 10 kts 145°
2026-04-24 08:19 37.47453 126.44009 36 ft 10 kts 144°
2026-04-24 08:19 37.47400 126.44056 36 ft 9 kts 144°
2026-04-24 08:19 37.47349 126.44102 36 ft 9 kts 144°
2026-04-24 08:20 37.47300 126.44145 36 ft 8 kts 144°
2026-04-24 08:20 37.47253 126.44187 36 ft 8 kts 144°
2026-04-24 08:20 37.47207 126.44228 36 ft 10 kts 144°
2026-04-24 08:20 37.47121 126.44306 36 ft 17 kts 144°
2026-04-24 08:21 37.47027 126.44389 36 ft 16 kts 144°
2026-04-24 08:21 37.46939 126.44467 36 ft 15 kts 144°
2026-04-24 08:21 37.46858 126.44540 36 ft 14 kts 145°
2026-04-24 08:21 37.46788 126.44601 36 ft 11 kts 145°
2026-04-24 08:22 37.46723 126.44624 36 ft 10 kts 210°
2026-04-24 08:22 37.46676 126.44554 37 ft 14 kts 234°
2026-04-24 08:22 37.46607 126.44430 37 ft 18 kts 234°
2026-04-24 08:22 37.46537 126.44307 37 ft 17 kts 234°
2026-04-24 08:23 37.46472 126.44190 37 ft 16 kts 234°
2026-04-24 08:23 37.46410 126.44080 37 ft 15 kts 234°
2026-04-24 08:23 37.46351 126.43977 37 ft 14 kts 234°
2026-04-24 08:23 37.46296 126.43881 37 ft 13 kts 234°
2026-04-24 08:24 37.46244 126.43790 37 ft 13 kts 234°
2026-04-24 08:24 37.46195 126.43701 37 ft 12 kts 235°
2026-04-24 08:24 37.46147 126.43616 37 ft 12 kts 235°
2026-04-24 08:24 37.46102 126.43535 37 ft 11 kts 235°
2026-04-24 08:25 37.46058 126.43456 37 ft 11 kts 234°
2026-04-24 08:25 37.46016 126.43382 37 ft 10 kts 234°
2026-04-24 08:25 37.46012 126.43303 36 ft 10 kts 312°
2026-04-24 08:25 37.46062 126.43255 37 ft 7 kts 326°
2026-04-24 08:26 37.46104 126.43222 37 ft 7 kts 327°
2026-04-24 08:26 37.46144 126.43189 37 ft 7 kts 329°
2026-04-24 08:26 37.46185 126.43162 37 ft 7 kts 332°
2026-04-24 08:26 37.46225 126.43136 37 ft 6 kts 335°
2026-04-24 08:27 37.46265 126.43114 37 ft 6 kts 339°
2026-04-24 08:27 37.46305 126.43094 37 ft 6 kts 339°
2026-04-24 08:27 37.46343 126.43076 37 ft 6 kts 349°
2026-04-24 08:27 37.46374 126.43101 37 ft 6 kts 59°
2026-04-24 08:28 37.46391 126.43145 37 ft 5 kts 69°
2026-04-24 08:28 37.46399 126.43173 37 ft 3 kts 70°
2026-04-24 08:28 37.46403 126.43188 37 ft 0 kts 70°
2026-04-24 08:28 37.46404 126.43189 36 ft 0 kts 70°